Observation data for Van Horn on 11/09/2019      Previous  Date       Current Mesonet Observations  Soil Data  Daily Summary Page  Observations in Plain Language
KVA1 090600Z 30004KT 05/03 A3033 RMK A01 T00510034  RH  088%=      5-min Rain = 0
KVA1 090601Z 30004KT 05/03 A3033 RMK A01 T00510033  RH  088%=      5-min Rain = 0
KVA1 090602Z 30004KT 05/03 A3033 RMK A01 T00510034  RH  089%=      5-min Rain = 0
KVA1 090603Z 30004KT 05/03 A3034 RMK A01 T00510034  RH  089%=      5-min Rain = 0
KVA1 090604Z 29003KT 05/03 A3034 RMK A01 T00510034  RH  089%=      5-min Rain = 0
KVA1 090605Z 29003KT 05/03 A3034 RMK A01 T00510033  RH  089%=      5-min Rain = 0
KVA1 090606Z 28003KT 05/03 A3034 RMK A01 T00510033  RH  089%=      5-min Rain = 0
KVA1 090607Z 28003KT 05/03 A3034 RMK A01 T00510033  RH  089%=      5-min Rain = 0
KVA1 090608Z 28003KT 05/03 A3034 RMK A01 T00510033  RH  088%=      5-min Rain = 0
KVA1 090609Z 28003KT 05/03 A3034 RMK A01 T00510033  RH  088%=      5-min Rain = 0
KVA1 090610Z 27003KT 05/03 A3034 RMK A01 T00510034  RH  088%=      5-min Rain = 0
KVA1 090611Z 27003KT 05/03 A3033 RMK A01 T00520034  RH  089%=      5-min Rain = 0
KVA1 090612Z 27002KT 05/03 A3033 RMK A01 T00520034  RH  089%=      5-min Rain = 0
KVA1 090613Z 27002KT 05/03 A3033 RMK A01 T00520034  RH  088%=      5-min Rain = 0
KVA1 090614Z 27002KT 05/03 A3033 RMK A01 T00520034  RH  088%=      5-min Rain = 0
KVA1 090615Z 27002KT 05/03 A3033 RMK A01 T00520034  RH  088%=      5-min Rain = 0
KVA1 090616Z 27002KT 05/03 A3033 RMK A01 T00520034  RH  088%=      5-min Rain = 0
KVA1 090617Z 27002KT 05/03 A3033 RMK A01 T00520034  RH  088%=      5-min Rain = 0
KVA1 090618Z 27002KT 05/03 A3033 RMK A01 T00510033  RH  088%=      5-min Rain = 0
KVA1 090619Z 28001KT 05/03 A3033 RMK A01 T00510033  RH  088%=      5-min Rain = 0
KVA1 090620Z 29002KT 05/03 A3033 RMK A01 T00510033  RH  088%=      5-min Rain = 0
KVA1 090621Z 29002KT 05/03 A3033 RMK A01 T00510033  RH  088%=      5-min Rain = 0
KVA1 090622Z 29002KT 05/03 A3033 RMK A01 T00500033  RH  088%=      5-min Rain = 0
KVA1 090623Z 28002KT 05/03 A3033 RMK A01 T00500032  RH  088%=      5-min Rain = 0
KVA1 090624Z 27002KT 05/03 A3033 RMK A01 T00490032  RH  088%=      5-min Rain = 0
KVA1 090625Z 27002KT 05/03 A3033 RMK A01 T00490032  RH  089%=      5-min Rain = 0
KVA1 090626Z 27002KT 05/03 A3033 RMK A01 T00490032  RH  089%=      5-min Rain = 0
KVA1 090627Z 27002KT 05/03 A3033 RMK A01 T00490033  RH  089%=      5-min Rain = 0
KVA1 090628Z 26003KT 05/03 A3033 RMK A01 T00490032  RH  089%=      5-min Rain = 0
KVA1 090629Z 26004KT 05/03 A3033 RMK A01 T00490033  RH  089%=      5-min Rain = 0
KVA1 090630Z 26004KT 05/03 A3033 RMK A01 T00490033  RH  089%=      5-min Rain = 0
KVA1 090631Z 26004KT 05/03 A3033 RMK A01 T00490033  RH  089%=      5-min Rain = 0
KVA1 090632Z 26004KT 05/03 A3033 RMK A01 T00490033  RH  089%=      5-min Rain = 0
KVA1 090633Z 27004KT 05/03 A3033 RMK A01 T00500034  RH  089%=      5-min Rain = 0
KVA1 090634Z 27004KT 05/03 A3033 RMK A01 T00500034  RH  089%=      5-min Rain = 0
KVA1 090635Z 27004KT 05/03 A3033 RMK A01 T00500034  RH  089%=      5-min Rain = 0
KVA1 090636Z 27004KT 05/03 A3033 RMK A01 T00500034  RH  089%=      5-min Rain = 0
KVA1 090637Z 27004KT 05/03 A3033 RMK A01 T00500034  RH  089%=      5-min Rain = 0
KVA1 090638Z 27004KT 05/04 A3033 RMK A01 T00510035  RH  089%=      5-min Rain = 0
KVA1 090639Z 26004KT 05/04 A3033 RMK A01 T00510035  RH  089%=      5-min Rain = 0
KVA1 090640Z 26004KT 05/04 A3033 RMK A01 T00510035  RH  089%=      5-min Rain = 0
KVA1 090641Z 26004KT 05/04 A3033 RMK A01 T00510035  RH  089%=      5-min Rain = 0
KVA1 090642Z 26004KT 05/04 A3033 RMK A01 T00520035  RH  089%=      5-min Rain = 0
KVA1 090643Z 26004KT 05/04 A3033 RMK A01 T00510035  RH  089%=      5-min Rain = 0
KVA1 090644Z 26004KT 05/04 A3033 RMK A01 T00520035  RH  089%=      5-min Rain = 0
KVA1 090645Z 26004KT 05/04 A3033 RMK A01 T00520035  RH  089%=      5-min Rain = 0
KVA1 090646Z 26004KT 05/04 A3033 RMK A01 T00520035  RH  089%=      5-min Rain = 0
KVA1 090647Z 26004KT 05/04 A3033 RMK A01 T00520035  RH  089%=      5-min Rain = 0
KVA1 090648Z 25004KT 05/04 A3033 RMK A01 T00510035  RH  089%=      5-min Rain = 0
KVA1 090649Z 22002KT 05/04 A3033 RMK A01 T00510035  RH  089%=      5-min Rain = 0
KVA1 090650Z 26004KT 05/03 A3033 RMK A01 T00510034  RH  089%=      5-min Rain = 0
KVA1 090651Z 25003KT 05/03 A3033 RMK A01 T00510034  RH  089%=      5-min Rain = 0
KVA1 090652Z 23002KT 05/03 A3033 RMK A01 T00500034  RH  089%=      5-min Rain = 0
KVA1 090653Z 26003KT 05/03 A3033 RMK A01 T00500034  RH  089%=      5-min Rain = 0
KVA1 090654Z 26003KT 05/03 A3033 RMK A01 T00500034  RH  089%=      5-min Rain = 0
KVA1 090655Z 25002KT 05/03 A3033 RMK A01 T00500034  RH  090%=      5-min Rain = 0
KVA1 090656Z 25003KT 05/03 A3033 RMK A01 T00490033  RH  090%=      5-min Rain = 0
KVA1 090657Z 25003KT 05/03 A3033 RMK A01 T00490033  RH  090%=      5-min Rain = 0
KVA1 090658Z 26003KT 05/03 A3032 RMK A01 T00480032  RH  090%=      5-min Rain = 0
KVA1 090659Z 24003KT 05/03 A3032 RMK A01 T00470031  RH  090%=      5-min Rain = 0
KVA1 090700Z 25003KT 05/03 A3033 RMK A01 T00470032  RH  090%=      5-min Rain = 0
KVA1 090701Z 26004KT 05/03 A3033 RMK A01 T00470032  RH  090%=      5-min Rain = 0
KVA1 090702Z 25003KT 05/03 A3033 RMK A01 T00470032  RH  090%=      5-min Rain = 0
KVA1 090703Z 26004KT 05/03 A3033 RMK A01 T00470032  RH  090%=      5-min Rain = 0
KVA1 090704Z 26004KT 05/03 A3033 RMK A01 T00460031  RH  090%=      5-min Rain = 0
KVA1 090705Z 27003KT 05/03 A3032 RMK A01 T00460031  RH  090%=      5-min Rain = 0
KVA1 090706Z 27003KT 05/03 A3032 RMK A01 T00460031  RH  090%=      5-min Rain = 0
KVA1 090707Z 27003KT 05/03 A3032 RMK A01 T00450031  RH  090%=      5-min Rain = 0
KVA1 090708Z 27003KT 05/03 A3032 RMK A01 T00450030  RH  090%=      5-min Rain = 0
KVA1 090709Z 27004KT 04/03 A3032 RMK A01 T00440030  RH  090%=      5-min Rain = 0
KVA1 090710Z 27004KT 04/03 A3032 RMK A01 T00440030  RH  090%=      5-min Rain = 0
KVA1 090711Z 27004KT 04/03 A3032 RMK A01 T00440030  RH  091%=      5-min Rain = 0
KVA1 090712Z 28004KT 04/03 A3032 RMK A01 T00440030  RH  091%=      5-min Rain = 0
KVA1 090713Z 28004KT 04/03 A3032 RMK A01 T00440030  RH  091%=      5-min Rain = 0
KVA1 090714Z 28004KT 04/03 A3032 RMK A01 T00430030  RH  091%=      5-min Rain = 0
KVA1 090715Z 28005KT 04/03 A3032 RMK A01 T00430030  RH  091%=      5-min Rain = 0
KVA1 090721Z 28006KT 04/03 A3032 RMK A01 T00430031  RH  092%=      5-min Rain = 0
KVA1 090722Z 28006KT 04/03 A3032 RMK A01 T00440031  RH  092%=      5-min Rain = 0
KVA1 090723Z 28006KT 04/03 A3032 RMK A01 T00440032  RH  092%=      5-min Rain = 0
KVA1 090724Z 28005KT 05/03 A3032 RMK A01 T00450033  RH  092%=      5-min Rain = 0
KVA1 090725Z 28005KT 05/03 A3032 RMK A01 T00450033  RH  092%=      5-min Rain = 0
KVA1 090726Z 28005KT 05/03 A3032 RMK A01 T00450033  RH  092%=      5-min Rain = 0
KVA1 090727Z 28005KT 05/03 A3032 RMK A01 T00450032  RH  092%=      5-min Rain = 0
KVA1 090728Z 28005KT 05/03 A3032 RMK A01 T00450033  RH  092%=      5-min Rain = 0
KVA1 090729Z 28005KT 05/03 A3032 RMK A01 T00450032  RH  092%=      5-min Rain = 0
KVA1 090730Z 29005KT 05/03 A3032 RMK A01 T00450032  RH  091%=      5-min Rain = 0
KVA1 090731Z 29005KT 05/03 A3032 RMK A01 T00450033  RH  092%=      5-min Rain = 0
KVA1 090732Z 29005KT 05/03 A3032 RMK A01 T00460034  RH  092%=      5-min Rain = 0
KVA1 090733Z 29005KT 05/03 A3032 RMK A01 T00460034  RH  092%=      5-min Rain = 0
KVA1 090734Z 29005KT 05/03 A3032 RMK A01 T00460034  RH  092%=      5-min Rain = 0
KVA1 090735Z 29005KT 05/04 A3032 RMK A01 T00470035  RH  092%=      5-min Rain = 0
KVA1 090736Z 29005KT 05/04 A3032 RMK A01 T00470035  RH  092%=      5-min Rain = 0
KVA1 090737Z 28005KT 05/04 A3032 RMK A01 T00470035  RH  092%=      5-min Rain = 0
KVA1 090738Z 28005KT 05/04 A3032 RMK A01 T00470035  RH  092%=      5-min Rain = 0
KVA1 090739Z 28005KT 05/03 A3032 RMK A01 T00470034  RH  091%=      5-min Rain = 0
KVA1 090740Z 28005KT 05/03 A3032 RMK A01 T00470034  RH  091%=      5-min Rain = 0
KVA1 090741Z 28005KT 05/03 A3032 RMK A01 T00470034  RH  091%=      5-min Rain = 0
KVA1 090742Z 28006KT 05/03 A3032 RMK A01 T00470034  RH  091%=      5-min Rain = 0
KVA1 090743Z 28006KT 05/03 A3032 RMK A01 T00480034  RH  091%=      5-min Rain = 0
KVA1 090744Z 28006KT 05/03 A3032 RMK A01 T00480034  RH  091%=      5-min Rain = 0
KVA1 090745Z 28006KT 05/03 A3032 RMK A01 T00480034  RH  091%=      5-min Rain = 0
KVA1 090746Z 28006KT 05/04 A3032 RMK A01 T00480035  RH  091%=      5-min Rain = 0
KVA1 090747Z 28006KT 05/04 A3032 RMK A01 T00480035  RH  091%=      5-min Rain = 0
KVA1 090748Z 28006KT 05/04 A3032 RMK A01 T00490035  RH  091%=      5-min Rain = 0
KVA1 090749Z 27006KT 05/04 A3032 RMK A01 T00490037  RH  091%=      5-min Rain = 0
KVA1 090750Z 27006KT 05/04 A3032 RMK A01 T00500037  RH  091%=      5-min Rain = 0
KVA1 090751Z 27007KT 05/04 A3032 RMK A01 T00510038  RH  091%=      5-min Rain = 0
KVA1 090752Z 27006KT 05/04 A3032 RMK A01 T00520039  RH  091%=      5-min Rain = 0
KVA1 090753Z 27006KT 05/04 A3032 RMK A01 T00530040  RH  091%=      5-min Rain = 0
KVA1 090754Z 27006KT 05/04 A3031 RMK A01 T00540041  RH  091%=      5-min Rain = 0
KVA1 090755Z 27006KT 06/04 A3031 RMK A01 T00560042  RH  091%=      5-min Rain = 0
KVA1 090756Z 27005KT 06/04 A3031 RMK A01 T00570042  RH  090%=      5-min Rain = 0
KVA1 090757Z 27005KT 06/04 A3031 RMK A01 T00570042  RH  090%=      5-min Rain = 0
KVA1 090758Z 28006KT 06/04 A3031 RMK A01 T00580042  RH  090%=      5-min Rain = 0
KVA1 090759Z 28005KT 06/04 A3031 RMK A01 T00580042  RH  090%=      5-min Rain = 0
KVA1 090800Z 27005KT 06/04 A3031 RMK A01 T00590043  RH  089%=      5-min Rain = 0
KVA1 090801Z 28005KT 06/04 A3031 RMK A01 T00590043  RH  089%=      5-min Rain = 0
KVA1 090802Z 28004KT 06/04 A3031 RMK A01 T00600043  RH  089%=      5-min Rain = 0
KVA1 090803Z 28004KT 06/04 A3031 RMK A01 T00600043  RH  089%=      5-min Rain = 0
KVA1 090804Z 28005KT 06/04 A3031 RMK A01 T00610044  RH  089%=      5-min Rain = 0
KVA1 090805Z 28004KT 06/04 A3031 RMK A01 T00610044  RH  089%=      5-min Rain = 0
KVA1 090806Z 28005KT 06/04 A3031 RMK A01 T00620044  RH  088%=      5-min Rain = 0
KVA1 090807Z 28005KT 06/04 A3031 RMK A01 T00620044  RH  088%=      5-min Rain = 0
KVA1 090808Z 28005KT 06/05 A3031 RMK A01 T00630045  RH  088%=      5-min Rain = 0
KVA1 090809Z 28004KT 06/05 A3031 RMK A01 T00640045  RH  088%=      5-min Rain = 0
KVA1 090810Z 28005KT 06/05 A3031 RMK A01 T00640046  RH  088%=      5-min Rain = 0
KVA1 090811Z 28004KT 07/05 A3031 RMK A01 T00650046  RH  088%=      5-min Rain = 0
KVA1 090812Z 28005KT 07/05 A3031 RMK A01 T00660047  RH  088%=      5-min Rain = 0
KVA1 090813Z 28004KT 07/05 A3031 RMK A01 T00660048  RH  088%=      5-min Rain = 0
KVA1 090814Z 28004KT 07/05 A3031 RMK A01 T00670048  RH  088%=      5-min Rain = 0
KVA1 090815Z 28004KT 07/05 A3031 RMK A01 T00680049  RH  088%=      5-min Rain = 0
KVA1 090816Z 28004KT 07/05 A3031 RMK A01 T00690049  RH  087%=      5-min Rain = 0
KVA1 090817Z 28004KT 07/05 A3031 RMK A01 T00700050  RH  087%=      5-min Rain = 0
KVA1 090818Z 28003KT 07/05 A3031 RMK A01 T00710050  RH  087%=      5-min Rain = 0
KVA1 090819Z 28003KT 07/05 A3031 RMK A01 T00710051  RH  087%=      5-min Rain = 0
KVA1 090820Z 28002KT 07/05 A3031 RMK A01 T00720051  RH  087%=      5-min Rain = 0
KVA1 090821Z 26002KT 07/05 A3031 RMK A01 T00720051  RH  086%=      5-min Rain = 0
KVA1 090822Z 22001KT 07/05 A3031 RMK A01 T00720050  RH  086%=      5-min Rain = 0
KVA1 090823Z 18001KT 07/05 A3031 RMK A01 T00720050  RH  086%=      5-min Rain = 0
KVA1 090824Z 16002KT 07/05 A3031 RMK A01 T00720048  RH  084%=      5-min Rain = 0
KVA1 090825Z 18002KT 07/05 A3031 RMK A01 T00710046  RH  084%=      5-min Rain = 0
KVA1 090826Z 18002KT 07/05 A3031 RMK A01 T00700045  RH  084%=      5-min Rain = 0
KVA1 090827Z 17003KT 07/04 A3031 RMK A01 T00690044  RH  084%=      5-min Rain = 0
KVA1 090828Z 18003KT 07/04 A3031 RMK A01 T00670042  RH  084%=      5-min Rain = 0
KVA1 090829Z 18003KT 07/04 A3031 RMK A01 T00670042  RH  084%=      5-min Rain = 0
KVA1 090830Z 18004KT 07/04 A3031 RMK A01 T00660043  RH  085%=      5-min Rain = 0
KVA1 090831Z 19003KT 07/04 A3031 RMK A01 T00660043  RH  085%=      5-min Rain = 0
KVA1 090832Z 19004KT 07/04 A3031 RMK A01 T00660044  RH  086%=      5-min Rain = 0
KVA1 090833Z 20004KT 07/04 A3031 RMK A01 T00660044  RH  086%=      5-min Rain = 0
KVA1 090834Z 20004KT 07/04 A303 RMK A01 T00660044  RH  086%=      5-min Rain = 0
KVA1 090835Z 21004KT 07/05 A303 RMK A01 T00670045  RH  086%=      5-min Rain = 0
KVA1 090836Z 20004KT 07/05 A303 RMK A01 T00670045  RH  086%=      5-min Rain = 0
KVA1 090837Z 20004KT 07/05 A303 RMK A01 T00670045  RH  086%=      5-min Rain = 0
KVA1 090838Z 20004KT 07/05 A303 RMK A01 T00670045  RH  086%=      5-min Rain = 0
KVA1 090839Z 19004KT 07/05 A3031 RMK A01 T00670045  RH  086%=      5-min Rain = 0
KVA1 090840Z 19003KT 07/05 A3031 RMK A01 T00670046  RH  086%=      5-min Rain = 0
KVA1 090841Z 19004KT 07/05 A3031 RMK A01 T00670046  RH  086%=      5-min Rain = 0
KVA1 090842Z 18004KT 07/05 A3031 RMK A01 T00670046  RH  086%=      5-min Rain = 0
KVA1 090843Z 18004KT 07/05 A303 RMK A01 T00670046  RH  087%=      5-min Rain = 0
KVA1 090844Z 18004KT 07/05 A303 RMK A01 T00670046  RH  087%=      5-min Rain = 0
KVA1 090845Z 18003KT 07/05 A303 RMK A01 T00670046  RH  087%=      5-min Rain = 0
KVA1 090846Z 18003KT 07/05 A303 RMK A01 T00670046  RH  087%=      5-min Rain = 0
KVA1 090847Z 18004KT 07/05 A303 RMK A01 T00670046  RH  087%=      5-min Rain = 0
KVA1 090848Z 19004KT 07/05 A3031 RMK A01 T00670047  RH  087%=      5-min Rain = 0
KVA1 090849Z 19004KT 07/05 A3031 RMK A01 T00670047  RH  087%=      5-min Rain = 0
KVA1 090850Z 19004KT 07/05 A3031 RMK A01 T00670047  RH  087%=      5-min Rain = 0
KVA1 090851Z 19004KT 07/05 A3031 RMK A01 T00660047  RH  087%=      5-min Rain = 0
KVA1 090852Z 19003KT 07/05 A3031 RMK A01 T00660047  RH  087%=      5-min Rain = 0
KVA1 090853Z 19004KT 07/05 A303 RMK A01 T00660046  RH  088%=      5-min Rain = 0
KVA1 090854Z 18004KT 07/05 A303 RMK A01 T00650046  RH  088%=      5-min Rain = 0
KVA1 090855Z 18004KT 07/05 A303 RMK A01 T00650046  RH  088%=      5-min Rain = 0
KVA1 090856Z 18004KT 06/05 A303 RMK A01 T00640046  RH  088%=      5-min Rain = 0
KVA1 090857Z 18003KT 06/05 A303 RMK A01 T00640046  RH  088%=      5-min Rain = 0
KVA1 090858Z 19003KT 06/05 A303 RMK A01 T00630046  RH  088%=      5-min Rain = 0
KVA1 090859Z 20003KT 06/05 A303 RMK A01 T00630046  RH  089%=      5-min Rain = 0
KVA1 090900Z 20004KT 06/05 A303 RMK A01 T00630046  RH  089%=      5-min Rain = 0
KVA1 090901Z 20004KT 06/05 A303 RMK A01 T00620045  RH  089%=      5-min Rain = 0
KVA1 090902Z 20004KT 06/04 A303 RMK A01 T00620044  RH  089%=      5-min Rain = 0
KVA1 090903Z 20004KT 06/04 A303 RMK A01 T00610044  RH  089%=      5-min Rain = 0
KVA1 090904Z 20004KT 06/04 A303 RMK A01 T00610044  RH  089%=      5-min Rain = 0
KVA1 090905Z 20004KT 06/04 A303 RMK A01 T00610044  RH  089%=      5-min Rain = 0
KVA1 090906Z 20005KT 06/04 A303 RMK A01 T00600044  RH  089%=      5-min Rain = 0
KVA1 090907Z 20005KT 06/04 A303 RMK A01 T00600044  RH  089%=      5-min Rain = 0
KVA1 090908Z 21005KT 06/04 A303 RMK A01 T00600044  RH  089%=      5-min Rain = 0
KVA1 090909Z 21004KT 06/04 A303 RMK A01 T00600043  RH  089%=      5-min Rain = 0
KVA1 090910Z 22004KT 06/04 A303 RMK A01 T00590043  RH  089%=      5-min Rain = 0
KVA1 090911Z 22004KT 06/04 A303 RMK A01 T00580042  RH  089%=      5-min Rain = 0
KVA1 090912Z 22003KT 06/04 A303 RMK A01 T00580041  RH  089%=      5-min Rain = 0
KVA1 090913Z 22003KT 06/04 A303 RMK A01 T00570041  RH  089%=      5-min Rain = 0
KVA1 090914Z 22003KT 06/04 A303 RMK A01 T00570041  RH  090%=      5-min Rain = 0
KVA1 090915Z 21004KT 06/04 A303 RMK A01 T00560041  RH  090%=      5-min Rain = 0
KVA1 090916Z 21004KT 06/04 A303 RMK A01 T00560041  RH  090%=      5-min Rain = 0
KVA1 090917Z 21004KT 06/04 A303 RMK A01 T00560041  RH  090%=      5-min Rain = 0
KVA1 090918Z 21004KT 06/04 A303 RMK A01 T00560041  RH  090%=      5-min Rain = 0
KVA1 090919Z 21005KT 06/04 A303 RMK A01 T00560041  RH  090%=      5-min Rain = 0
KVA1 090920Z 21005KT 06/04 A303 RMK A01 T00560041  RH  090%=      5-min Rain = 0
KVA1 090921Z 21005KT 06/04 A303 RMK A01 T00550041  RH  090%=      5-min Rain = 0
KVA1 090922Z 20005KT 06/04 A303 RMK A01 T00550041  RH  091%=      5-min Rain = 0
KVA1 090923Z 20005KT 06/04 A303 RMK A01 T00550041  RH  091%=      5-min Rain = 0
KVA1 090924Z 20005KT 06/04 A303 RMK A01 T00550042  RH  091%=      5-min Rain = 0
KVA1 090925Z 20005KT 06/04 A303 RMK A01 T00550042  RH  091%=      5-min Rain = 0
KVA1 090926Z 19006KT 06/04 A303 RMK A01 T00550042  RH  091%=      5-min Rain = 0
KVA1 090927Z 20006KT 06/04 A303 RMK A01 T00550042  RH  091%=      5-min Rain = 0
KVA1 090928Z 20006KT 06/04 A3029 RMK A01 T00550042  RH  091%=      5-min Rain = 0
KVA1 090929Z 20005KT 06/04 A3029 RMK A01 T00560043  RH  092%=      5-min Rain = 0
KVA1 090930Z 20006KT 06/04 A3029 RMK A01 T00560043  RH  092%=      5-min Rain = 0
KVA1 090931Z 20005KT 06/04 A3029 RMK A01 T00560044  RH  092%=      5-min Rain = 0
KVA1 090932Z 20005KT 06/04 A3029 RMK A01 T00560044  RH  092%=      5-min Rain = 0
KVA1 090933Z 20005KT 06/04 A3029 RMK A01 T00560044  RH  092%=      5-min Rain = 0
KVA1 090934Z 20005KT 06/05 A3029 RMK A01 T00560045  RH  092%=      5-min Rain = 0
KVA1 090935Z 20005KT 06/05 A3029 RMK A01 T00560045  RH  092%=      5-min Rain = 0
KVA1 090936Z 21005KT 06/05 A3029 RMK A01 T00570045  RH  093%=      5-min Rain = 0
KVA1 090937Z 21005KT 06/05 A3029 RMK A01 T00570046  RH  093%=      5-min Rain = 0
KVA1 090938Z 21005KT 06/05 A3029 RMK A01 T00570045  RH  092%=      5-min Rain = 0
KVA1 090939Z 21005KT 06/05 A3029 RMK A01 T00560045  RH  092%=      5-min Rain = 0
KVA1 090940Z 21005KT 06/05 A3029 RMK A01 T00560045  RH  092%=      5-min Rain = 0
KVA1 090941Z 22005KT 06/05 A3029 RMK A01 T00560045  RH  093%=      5-min Rain = 0
KVA1 090942Z 21006KT 06/05 A3029 RMK A01 T00560045  RH  093%=      5-min Rain = 0
KVA1 090943Z 21006KT 06/05 A3029 RMK A01 T00560045  RH  093%=      5-min Rain = 0
KVA1 090944Z 22006KT 06/05 A3029 RMK A01 T00560046  RH  093%=      5-min Rain = 0
KVA1 090945Z 22005KT 06/05 A3029 RMK A01 T00560047  RH  094%=      5-min Rain = 0
KVA1 090946Z 22005KT 06/05 A3029 RMK A01 T00570047  RH  094%=      5-min Rain = 0
KVA1 090947Z 21005KT 06/05 A3029 RMK A01 T00560047  RH  094%=      5-min Rain = 0
KVA1 090948Z 22005KT 06/05 A3029 RMK A01 T00570048  RH  094%=      5-min Rain = 0
KVA1 090949Z 21004KT 06/05 A3029 RMK A01 T00570048  RH  094%=      5-min Rain = 0
KVA1 090950Z 21004KT 06/05 A3029 RMK A01 T00570048  RH  094%=      5-min Rain = 0
KVA1 090951Z 21004KT 06/05 A3029 RMK A01 T00570048  RH  094%=      5-min Rain = 0
KVA1 090952Z 21004KT 06/05 A3029 RMK A01 T00570048  RH  094%=      5-min Rain = 0
KVA1 090953Z 21003KT 06/05 A3029 RMK A01 T00570049  RH  094%=      5-min Rain = 0
KVA1 090954Z 21003KT 06/05 A3029 RMK A01 T00570049  RH  094%=      5-min Rain = 0
KVA1 090955Z 22003KT 06/05 A3029 RMK A01 T00580049  RH  094%=      5-min Rain = 0
KVA1 090956Z 23003KT 06/05 A3029 RMK A01 T00580049  RH  094%=      5-min Rain = 0
KVA1 090957Z 23004KT 06/05 A3029 RMK A01 T00580049  RH  094%=      5-min Rain = 0
KVA1 090958Z 24003KT 06/05 A3029 RMK A01 T00580049  RH  094%=      5-min Rain = 0
KVA1 090959Z 25003KT 06/05 A3029 RMK A01 T00580049  RH  094%=      5-min Rain = 0
KVA1 091000Z 26003KT 06/05 A3029 RMK A01 T00580048  RH  094%=      5-min Rain = 0
KVA1 091001Z 26002KT 06/05 A3029 RMK A01 T00570048  RH  094%=      5-min Rain = 0
KVA1 091002Z 26002KT 06/05 A3029 RMK A01 T00570048  RH  094%=      5-min Rain = 0
KVA1 091003Z 27001KT 06/05 A3029 RMK A01 T00560047  RH  094%=      5-min Rain = 0
KVA1 091004Z 27001KT 06/05 A3029 RMK A01 T00560046  RH  094%=      5-min Rain = 0
KVA1 091005Z 26001KT 06/05 A3029 RMK A01 T00550046  RH  094%=      5-min Rain = 0
KVA1 091006Z 25002KT 06/05 A3029 RMK A01 T00550046  RH  094%=      5-min Rain = 0
KVA1 091007Z 24001KT 06/05 A3029 RMK A01 T00550046  RH  094%=      5-min Rain = 0
KVA1 091008Z 23001KT 05/05 A3029 RMK A01 T00540046  RH  094%=      5-min Rain = 0
KVA1 091009Z 23002KT 05/05 A3029 RMK A01 T00540046  RH  094%=      5-min Rain = 0
KVA1 091010Z 23002KT 05/05 A3029 RMK A01 T00540046  RH  095%=      5-min Rain = 0
KVA1 091011Z 23002KT 06/05 A3029 RMK A01 T00550047  RH  095%=      5-min Rain = 0
KVA1 091012Z 23001KT 06/05 A3029 RMK A01 T00550048  RH  095%=      5-min Rain = 0
KVA1 091013Z 22001KT 06/05 A3029 RMK A01 T00560048  RH  095%=      5-min Rain = 0
KVA1 091014Z 22001KT 06/05 A3029 RMK A01 T00560049  RH  095%=      5-min Rain = 0
KVA1 091015Z 22001KT 06/05 A3029 RMK A01 T00560049  RH  095%=      5-min Rain = 0
KVA1 091016Z 22001KT 06/05 A3029 RMK A01 T00560049  RH  095%=      5-min Rain = 0
KVA1 091017Z 22001KT 06/05 A3029 RMK A01 T00560049  RH  095%=      5-min Rain = 0
KVA1 091018Z 22001KT 06/05 A3029 RMK A01 T00560048  RH  095%=      5-min Rain = 0
KVA1 091019Z 22002KT 06/05 A3029 RMK A01 T00570050  RH  095%=      5-min Rain = 0
KVA1 091020Z 22002KT 06/05 A3029 RMK A01 T00570049  RH  095%=      5-min Rain = 0
KVA1 091021Z 22002KT 06/05 A3029 RMK A01 T00570050  RH  095%=      5-min Rain = 0
KVA1 091022Z 23002KT 06/05 A3029 RMK A01 T00580050  RH  095%=      5-min Rain = 0
KVA1 091023Z 25002KT 06/05 A3029 RMK A01 T00580050  RH  095%=      5-min Rain = 0
KVA1 091024Z 25002KT 06/05 A3029 RMK A01 T00580049  RH  094%=      5-min Rain = 0
KVA1 091025Z 25002KT 06/05 A3029 RMK A01 T00570049  RH  094%=      5-min Rain = 0
KVA1 091026Z 25002KT 06/05 A3029 RMK A01 T00580049  RH  094%=      5-min Rain = 0
KVA1 091027Z 24002KT 06/05 A3029 RMK A01 T00580050  RH  094%=      5-min Rain = 0
KVA1 091028Z 24002KT 06/05 A3029 RMK A01 T00590050  RH  095%=      5-min Rain = 0
KVA1 091029Z 25002KT 06/05 A3029 RMK A01 T00590051  RH  095%=      5-min Rain = 0
KVA1 091030Z 27002KT 06/05 A3029 RMK A01 T00590051  RH  095%=      5-min Rain = 0
KVA1 091031Z 28003KT 06/05 A3029 RMK A01 T00590051  RH  094%=      5-min Rain = 0
KVA1 091032Z 28003KT 06/05 A3029 RMK A01 T00590050  RH  094%=      5-min Rain = 0
KVA1 091033Z 29002KT 06/05 A3029 RMK A01 T00590050  RH  094%=      5-min Rain = 0
KVA1 091034Z 29002KT 06/05 A3029 RMK A01 T00590050  RH  094%=      5-min Rain = 0
KVA1 091035Z 30002KT 06/05 A3029 RMK A01 T00590050  RH  094%=      5-min Rain = 0
KVA1 091036Z 30002KT 06/05 A3029 RMK A01 T00590050  RH  094%=      5-min Rain = 0
KVA1 091037Z 30002KT 06/05 A3029 RMK A01 T00590050  RH  094%=      5-min Rain = 0
KVA1 091038Z 30002KT 06/05 A3029 RMK A01 T00590050  RH  094%=      5-min Rain = 0
KVA1 091039Z 30001KT 06/05 A3029 RMK A01 T00590050  RH  094%=      5-min Rain = 0
KVA1 091040Z 31001KT 06/05 A3029 RMK A01 T00590050  RH  094%=      5-min Rain = 0
KVA1 091041Z 31000KT 06/05 A3029 RMK A01 T00590050  RH  094%=      5-min Rain = 0
KVA1 091042Z 33001KT 06/05 A3029 RMK A01 T00590049  RH  094%=      5-min Rain = 0
KVA1 091043Z 34001KT 06/05 A3029 RMK A01 T00590049  RH  094%=      5-min Rain = 0
KVA1 091044Z 34000KT 06/05 A3029 RMK A01 T00590050  RH  094%=      5-min Rain = 0
KVA1 091045Z 00000KT 06/05 A3029 RMK A01 T00590050  RH  094%=      5-min Rain = 0
KVA1 091046Z 00000KT 06/05 A3029 RMK A01 T00600050  RH  093%=      5-min Rain = 0
KVA1 091047Z 08000KT 06/05 A3029 RMK A01 T00600050  RH  093%=      5-min Rain = 0
KVA1 091048Z 08002KT 06/05 A3029 RMK A01 T00600051  RH  093%=      5-min Rain = 0
KVA1 091049Z 08002KT 06/05 A3029 RMK A01 T00610051  RH  093%=      5-min Rain = 0
KVA1 091050Z 07001KT 06/05 A303 RMK A01 T00610051  RH  093%=      5-min Rain = 0
KVA1 091051Z 07001KT 06/05 A303 RMK A01 T00620051  RH  093%=      5-min Rain = 0
KVA1 091052Z 05000KT 06/05 A303 RMK A01 T00620051  RH  093%=      5-min Rain = 0
KVA1 091053Z 06001KT 06/05 A303 RMK A01 T00620051  RH  093%=      5-min Rain = 0
KVA1 091054Z 04001KT 06/05 A303 RMK A01 T00620051  RH  092%=      5-min Rain = 0
KVA1 091055Z 05001KT 06/05 A303 RMK A01 T00620051  RH  092%=      5-min Rain = 0
KVA1 091056Z 03002KT 06/05 A303 RMK A01 T00630050  RH  091%=      5-min Rain = 0
KVA1 091057Z 03001KT 06/05 A3029 RMK A01 T00620048  RH  091%=      5-min Rain = 0
KVA1 091058Z 03001KT 06/05 A3029 RMK A01 T00630048  RH  090%=      5-min Rain = 0
KVA1 091059Z 02001KT 06/05 A3029 RMK A01 T00630048  RH  090%=      5-min Rain = 0
KVA1 091100Z 02001KT 06/05 A3029 RMK A01 T00630047  RH  090%=      5-min Rain = 0
KVA1 091101Z 00000KT 06/05 A3029 RMK A01 T00630047  RH  090%=      5-min Rain = 0
KVA1 091102Z 00000KT 06/05 A3029 RMK A01 T00630047  RH  089%=      5-min Rain = 0
KVA1 091103Z 02000KT 06/05 A3029 RMK A01 T00630047  RH  089%=      5-min Rain = 0
KVA1 091104Z 03001KT 06/05 A3029 RMK A01 T00630046  RH  089%=      5-min Rain = 0
KVA1 091105Z 03002KT 06/05 A3029 RMK A01 T00630046  RH  089%=      5-min Rain = 0
KVA1 091106Z 02003KT 06/05 A3029 RMK A01 T00630046  RH  089%=      5-min Rain = 0
KVA1 091107Z 02002KT 06/05 A3029 RMK A01 T00630046  RH  089%=      5-min Rain = 0
KVA1 091108Z 01001KT 06/05 A3029 RMK A01 T00630046  RH  089%=      5-min Rain = 0
KVA1 091109Z 00000KT 06/05 A3029 RMK A01 T00620045  RH  089%=      5-min Rain = 0
KVA1 091110Z 31000KT 06/05 A3029 RMK A01 T00620045  RH  089%=      5-min Rain = 0
KVA1 091111Z 32001KT 06/05 A3029 RMK A01 T00620045  RH  089%=      5-min Rain = 0
KVA1 091112Z 32001KT 06/04 A3029 RMK A01 T00610044  RH  089%=      5-min Rain = 0
KVA1 091113Z 34002KT 06/04 A3029 RMK A01 T00610044  RH  089%=      5-min Rain = 0
KVA1 091114Z 34002KT 06/04 A3029 RMK A01 T00600043  RH  089%=      5-min Rain = 0
KVA1 091115Z 35002KT 06/04 A3029 RMK A01 T00600043  RH  089%=      5-min Rain = 0
KVA1 091116Z 01002KT 06/04 A3029 RMK A01 T00590043  RH  089%=      5-min Rain = 0
KVA1 091117Z 03003KT 06/04 A3029 RMK A01 T00590043  RH  089%=      5-min Rain = 0
KVA1 091118Z 03003KT 06/04 A3029 RMK A01 T00590042  RH  089%=      5-min Rain = 0
KVA1 091119Z 02002KT 06/04 A3029 RMK A01 T00580042  RH  089%=      5-min Rain = 0
KVA1 091120Z 01002KT 06/04 A3029 RMK A01 T00580042  RH  090%=      5-min Rain = 0
KVA1 091121Z 35002KT 06/04 A3029 RMK A01 T00570042  RH  090%=      5-min Rain = 0
KVA1 091122Z 33003KT 06/04 A3029 RMK A01 T00570041  RH  090%=      5-min Rain = 0
KVA1 091123Z 32003KT 06/04 A3029 RMK A01 T00570041  RH  090%=      5-min Rain = 0
KVA1 091124Z 32004KT 06/04 A3029 RMK A01 T00560040  RH  090%=      5-min Rain = 0
KVA1 091125Z 32003KT 06/04 A3029 RMK A01 T00550040  RH  090%=      5-min Rain = 0
KVA1 091126Z 32003KT 06/04 A3029 RMK A01 T00550040  RH  090%=      5-min Rain = 0
KVA1 091127Z 32002KT 05/04 A3029 RMK A01 T00540040  RH  091%=      5-min Rain = 0
KVA1 091128Z 32002KT 05/04 A3029 RMK A01 T00540040  RH  091%=      5-min Rain = 0
KVA1 091129Z 31002KT 05/04 A3029 RMK A01 T00530040  RH  091%=      5-min Rain = 0
KVA1 091130Z 30002KT 05/04 A3029 RMK A01 T00530040  RH  091%=      5-min Rain = 0
KVA1 091131Z 30002KT 05/04 A303 RMK A01 T00530039  RH  091%=      5-min Rain = 0
KVA1 091132Z 30002KT 05/04 A303 RMK A01 T00530039  RH  091%=      5-min Rain = 0
KVA1 091133Z 29002KT 05/04 A303 RMK A01 T00520039  RH  091%=      5-min Rain = 0
KVA1 091134Z 30002KT 05/04 A303 RMK A01 T00520039  RH  091%=      5-min Rain = 0
KVA1 091135Z 30003KT 05/04 A303 RMK A01 T00510038  RH  091%=      5-min Rain = 0
KVA1 091136Z 31002KT 05/04 A303 RMK A01 T00510038  RH  091%=      5-min Rain = 0
KVA1 091137Z 31002KT 05/04 A3029 RMK A01 T00510039  RH  092%=      5-min Rain = 0
KVA1 091138Z 31002KT 05/04 A3029 RMK A01 T00500038  RH  092%=      5-min Rain = 0
KVA1 091139Z 30002KT 05/04 A3029 RMK A01 T00500038  RH  092%=      5-min Rain = 0
KVA1 091140Z 31002KT 05/04 A3029 RMK A01 T00500037  RH  092%=      5-min Rain = 0
KVA1 091141Z 31003KT 05/04 A3029 RMK A01 T00490037  RH  092%=      5-min Rain = 0
KVA1 091142Z 31003KT 05/04 A3029 RMK A01 T00490037  RH  092%=      5-min Rain = 0
KVA1 091143Z 31003KT 05/04 A3029 RMK A01 T00490037  RH  092%=      5-min Rain = 0
KVA1 091144Z 31003KT 05/04 A3029 RMK A01 T00480037  RH  092%=      5-min Rain = 0
KVA1 091145Z 31002KT 05/04 A3029 RMK A01 T00480036  RH  092%=      5-min Rain = 0
KVA1 091146Z 31002KT 05/04 A3029 RMK A01 T00480037  RH  092%=      5-min Rain = 0
KVA1 091147Z 32002KT 05/04 A3029 RMK A01 T00480037  RH  093%=      5-min Rain = 0
KVA1 091148Z 31003KT 05/04 A3029 RMK A01 T00480037  RH  093%=      5-min Rain = 0
KVA1 091149Z 31003KT 05/04 A3029 RMK A01 T00470036  RH  093%=      5-min Rain = 0
KVA1 091150Z 31003KT 05/04 A3029 RMK A01 T00470037  RH  093%=      5-min Rain = 0
KVA1 091151Z 32003KT 05/04 A3029 RMK A01 T00480037  RH  093%=      5-min Rain = 0
KVA1 091152Z 32003KT 05/04 A3029 RMK A01 T00480038  RH  093%=      5-min Rain = 0
KVA1 091153Z 32003KT 05/04 A3029 RMK A01 T00480038  RH  093%=      5-min Rain = 0
KVA1 091154Z 32003KT 05/04 A3029 RMK A01 T00480038  RH  093%=      5-min Rain = 0
KVA1 091155Z 31003KT 05/04 A3029 RMK A01 T00480038  RH  093%=      5-min Rain = 0
KVA1 091156Z 32003KT 05/04 A3029 RMK A01 T00480038  RH  093%=      5-min Rain = 0
KVA1 091157Z 32003KT 05/04 A3029 RMK A01 T00480038  RH  093%=      5-min Rain = 0
KVA1 091158Z 32003KT 05/04 A3029 RMK A01 T00490039  RH  094%=      5-min Rain = 0
KVA1 091159Z 32003KT 05/04 A3029 RMK A01 T00490039  RH  094%=      5-min Rain = 0
KVA1 091200Z 33003KT 05/04 A3029 RMK A01 T00480038  RH  093%=      5-min Rain = 0
KVA1 091201Z 32003KT 05/04 A3029 RMK A01 T00480038  RH  093%=      5-min Rain = 0
KVA1 091202Z 32003KT 05/04 A303 RMK A01 T00480037  RH  093%=      5-min Rain = 0
KVA1 091203Z 31003KT 05/04 A303 RMK A01 T00470037  RH  093%=      5-min Rain = 0
KVA1 091204Z 32003KT 05/04 A303 RMK A01 T00470037  RH  093%=      5-min Rain = 0
KVA1 091205Z 32003KT 05/04 A303 RMK A01 T00470036  RH  093%=      5-min Rain = 0
KVA1 091206Z 32003KT 05/04 A303 RMK A01 T00460036  RH  093%=      5-min Rain = 0
KVA1 091207Z 32003KT 05/04 A303 RMK A01 T00460036  RH  093%=      5-min Rain = 0
KVA1 091208Z 33003KT 05/04 A303 RMK A01 T00460036  RH  093%=      5-min Rain = 0
KVA1 091209Z 33003KT 05/04 A303 RMK A01 T00460036  RH  093%=      5-min Rain = 0
KVA1 091210Z 33003KT 05/04 A303 RMK A01 T00450035  RH  093%=      5-min Rain = 0
KVA1 091211Z 33003KT 05/04 A303 RMK A01 T00450035  RH  093%=      5-min Rain = 0
KVA1 091212Z 33003KT 04/03 A303 RMK A01 T00440034  RH  093%=      5-min Rain = 0
KVA1 091213Z 33002KT 04/03 A303 RMK A01 T00440034  RH  093%=      5-min Rain = 0
KVA1 091214Z 33002KT 04/03 A303 RMK A01 T00430034  RH  093%=      5-min Rain = 0
KVA1 091215Z 33002KT 04/03 A303 RMK A01 T00430034  RH  093%=      5-min Rain = 0
KVA1 091216Z 33002KT 04/03 A303 RMK A01 T00430033  RH  094%=      5-min Rain = 0
KVA1 091217Z 33003KT 04/03 A303 RMK A01 T00430034  RH  094%=      5-min Rain = 0
KVA1 091218Z 33004KT 04/03 A303 RMK A01 T00430034  RH  094%=      5-min Rain = 0
KVA1 091219Z 33004KT 04/03 A303 RMK A01 T00430034  RH  094%=      5-min Rain = 0
KVA1 091220Z 33004KT 04/03 A303 RMK A01 T00430034  RH  094%=      5-min Rain = 0
KVA1 091221Z 34004KT 04/03 A303 RMK A01 T00430034  RH  094%=      5-min Rain = 0
KVA1 091222Z 34004KT 04/03 A303 RMK A01 T00420033  RH  094%=      5-min Rain = 0
KVA1 091223Z 34004KT 04/03 A303 RMK A01 T00420034  RH  094%=      5-min Rain = 0
KVA1 091224Z 34004KT 04/03 A303 RMK A01 T00420034  RH  094%=      5-min Rain = 0
KVA1 091225Z 35004KT 04/03 A303 RMK A01 T00420034  RH  094%=      5-min Rain = 0
KVA1 091226Z 35004KT 04/03 A303 RMK A01 T00420033  RH  094%=      5-min Rain = 0
KVA1 091227Z 35004KT 04/03 A303 RMK A01 T00420033  RH  094%=      5-min Rain = 0
KVA1 091228Z 36004KT 04/03 A303 RMK A01 T00420034  RH  094%=      5-min Rain = 0
KVA1 091229Z 00004KT 04/03 A303 RMK A01 T00420034  RH  094%=      5-min Rain = 0
KVA1 091230Z 00005KT 04/03 A303 RMK A01 T00420034  RH  095%=      5-min Rain = 0
KVA1 091231Z 36005KT 04/04 A303 RMK A01 T00430035  RH  095%=      5-min Rain = 0
KVA1 091232Z 00005KT 04/04 A303 RMK A01 T00430035  RH  095%=      5-min Rain = 0
KVA1 091233Z 00005KT 04/04 A303 RMK A01 T00430035  RH  095%=      5-min Rain = 0
KVA1 091234Z 01005KT 04/04 A303 RMK A01 T00430036  RH  095%=      5-min Rain = 0
KVA1 091235Z 01005KT 04/04 A303 RMK A01 T00440036  RH  095%=      5-min Rain = 0
KVA1 091236Z 01005KT 05/04 A3029 RMK A01 T00450038  RH  095%=      5-min Rain = 0
KVA1 091237Z 02005KT 05/04 A3029 RMK A01 T00460040  RH  096%=      5-min Rain = 0
KVA1 091238Z 02005KT 05/04 A3029 RMK A01 T00470041  RH  096%=      5-min Rain = 0
KVA1 091239Z 02005KT 05/04 A3029 RMK A01 T00470040  RH  095%=      5-min Rain = 0
KVA1 091240Z 02005KT 05/04 A303 RMK A01 T00460039  RH  095%=      5-min Rain = 0
KVA1 091241Z 02004KT 05/04 A303 RMK A01 T00460039  RH  095%=      5-min Rain = 0
KVA1 091242Z 02003KT 05/04 A303 RMK A01 T00460039  RH  095%=      5-min Rain = 0
KVA1 091243Z 02003KT 05/04 A303 RMK A01 T00460039  RH  095%=      5-min Rain = 0
KVA1 091244Z 02003KT 05/04 A303 RMK A01 T00450038  RH  095%=      5-min Rain = 0
KVA1 091245Z 02003KT 05/04 A303 RMK A01 T00460038  RH  095%=      5-min Rain = 0
KVA1 091246Z 02003KT 05/04 A303 RMK A01 T00450038  RH  095%=      5-min Rain = 0
KVA1 091247Z 02003KT 05/04 A303 RMK A01 T00450038  RH  095%=      5-min Rain = 0
KVA1 091248Z 02004KT 05/04 A303 RMK A01 T00450038  RH  095%=      5-min Rain = 0
KVA1 091249Z 02004KT 05/04 A303 RMK A01 T00450038  RH  095%=      5-min Rain = 0
KVA1 091250Z 02004KT 05/04 A303 RMK A01 T00450037  RH  095%=      5-min Rain = 0
KVA1 091251Z 02004KT 04/04 A303 RMK A01 T00440037  RH  095%=      5-min Rain = 0
KVA1 091252Z 01004KT 04/04 A303 RMK A01 T00440037  RH  095%=      5-min Rain = 0
KVA1 091253Z 01004KT 04/04 A303 RMK A01 T00440036  RH  095%=      5-min Rain = 0
KVA1 091254Z 01003KT 04/04 A303 RMK A01 T00440037  RH  095%=      5-min Rain = 0
KVA1 091255Z 01003KT 04/04 A303 RMK A01 T00440037  RH  095%=      5-min Rain = 0
KVA1 091256Z 02003KT 04/04 A303 RMK A01 T00430036  RH  095%=      5-min Rain = 0
KVA1 091257Z 02003KT 04/04 A303 RMK A01 T00430036  RH  095%=      5-min Rain = 0
KVA1 091258Z 02003KT 04/04 A303 RMK A01 T00430036  RH  095%=      5-min Rain = 0
KVA1 091259Z 02003KT 04/04 A303 RMK A01 T00430036  RH  095%=      5-min Rain = 0
KVA1 091300Z 02003KT 04/04 A303 RMK A01 T00430036  RH  095%=      5-min Rain = 0
KVA1 091301Z 02003KT 04/04 A303 RMK A01 T00430036  RH  095%=      5-min Rain = 0
KVA1 091302Z 03003KT 04/04 A303 RMK A01 T00430036  RH  095%=      5-min Rain = 0
KVA1 091303Z 03003KT 04/04 A303 RMK A01 T00420035  RH  095%=      5-min Rain = 0
KVA1 091304Z 03003KT 04/03 A303 RMK A01 T00410034  RH  095%=      5-min Rain = 0
KVA1 091305Z 03004KT 04/03 A303 RMK A01 T00410034  RH  095%=      5-min Rain = 0
KVA1 091306Z 03004KT 04/04 A303 RMK A01 T00410035  RH  095%=      5-min Rain = 0
KVA1 091307Z 04004KT 04/04 A303 RMK A01 T00420035  RH  096%=      5-min Rain = 0
KVA1 091308Z 04003KT 04/04 A3031 RMK A01 T00420036  RH  096%=      5-min Rain = 0
KVA1 091309Z 04003KT 04/04 A3031 RMK A01 T00420036  RH  096%=      5-min Rain = 0
KVA1 091310Z 04003KT 04/04 A3031 RMK A01 T00430036  RH  096%=      5-min Rain = 0
KVA1 091311Z 04002KT 04/04 A3031 RMK A01 T00420036  RH  096%=      5-min Rain = 0
KVA1 091312Z 04002KT 04/04 A3031 RMK A01 T00420036  RH  096%=      5-min Rain = 0
KVA1 091313Z 05002KT 04/04 A3031 RMK A01 T00420036  RH  096%=      5-min Rain = 0
KVA1 091314Z 04002KT 04/04 A3031 RMK A01 T00420036  RH  096%=      5-min Rain = 0
KVA1 091315Z 04002KT 04/04 A3031 RMK A01 T00420035  RH  096%=      5-min Rain = 0
KVA1 091316Z 04002KT 04/04 A3031 RMK A01 T00420036  RH  096%=      5-min Rain = 0
KVA1 091317Z 04003KT 04/04 A3031 RMK A01 T00420036  RH  096%=      5-min Rain = 0
KVA1 091318Z 04003KT 04/04 A3031 RMK A01 T00430037  RH  096%=      5-min Rain = 0
KVA1 091319Z 04003KT 04/04 A3031 RMK A01 T00420037  RH  096%=      5-min Rain = 0
KVA1 091320Z 04004KT 04/04 A3031 RMK A01 T00430037  RH  096%=      5-min Rain = 0
KVA1 091321Z 04004KT 04/04 A3031 RMK A01 T00420036  RH  096%=      5-min Rain = 0
KVA1 091322Z 05004KT 04/04 A3031 RMK A01 T00420036  RH  096%=      5-min Rain = 0
KVA1 091323Z 05004KT 04/04 A3031 RMK A01 T00410035  RH  096%=      5-min Rain = 0
KVA1 091324Z 05004KT 04/04 A3031 RMK A01 T00420035  RH  096%=      5-min Rain = 0
KVA1 091325Z 05004KT 04/04 A3031 RMK A01 T00420036  RH  096%=      5-min Rain = 0
KVA1 091326Z 04004KT 04/04 A3031 RMK A01 T00420036  RH  096%=      5-min Rain = 0
KVA1 091327Z 04004KT 04/04 A3031 RMK A01 T00420036  RH  096%=      5-min Rain = 0
KVA1 091328Z 04004KT 04/04 A3031 RMK A01 T00420036  RH  096%=      5-min Rain = 0
KVA1 091329Z 04003KT 04/04 A3031 RMK A01 T00410036  RH  096%=      5-min Rain = 0
KVA1 091330Z 04003KT 04/04 A3031 RMK A01 T00410036  RH  096%=      5-min Rain = 0
KVA1 091331Z 04003KT 04/04 A3031 RMK A01 T00420036  RH  096%=      5-min Rain = 0
KVA1 091332Z 04003KT 04/04 A3031 RMK A01 T00410035  RH  096%=      5-min Rain = 0
KVA1 091333Z 04003KT 04/04 A3031 RMK A01 T00410035  RH  096%=      5-min Rain = 0
KVA1 091334Z 03003KT 04/04 A3031 RMK A01 T00400035  RH  096%=      5-min Rain = 0
KVA1 091335Z 03003KT 04/03 A3031 RMK A01 T00400034  RH  096%=      5-min Rain = 0
KVA1 091336Z 03004KT 04/03 A3031 RMK A01 T00400034  RH  096%=      5-min Rain = 0
KVA1 091337Z 02003KT 04/03 A3031 RMK A01 T00400034  RH  096%=      5-min Rain = 0
KVA1 091338Z 03003KT 04/03 A3031 RMK A01 T00400034  RH  096%=      5-min Rain = 0
KVA1 091339Z 03003KT 04/03 A3031 RMK A01 T00400034  RH  096%=      5-min Rain = 0
KVA1 091340Z 02003KT 04/03 A3031 RMK A01 T00400034  RH  096%=      5-min Rain = 0
KVA1 091341Z 03003KT 04/03 A3031 RMK A01 T00400034  RH  096%=      5-min Rain = 0
KVA1 091342Z 02003KT 04/03 A3031 RMK A01 T00400034  RH  096%=      5-min Rain = 0
KVA1 091343Z 02003KT 04/03 A3031 RMK A01 T00400034  RH  096%=      5-min Rain = 0
KVA1 091344Z 03003KT 04/03 A3031 RMK A01 T00400033  RH  095%=      5-min Rain = 0
KVA1 091345Z 03003KT 04/03 A3031 RMK A01 T00400033  RH  095%=      5-min Rain = 0
KVA1 091346Z 03003KT 04/03 A3031 RMK A01 T00400033  RH  095%=      5-min Rain = 0
KVA1 091347Z 02003KT 04/03 A3031 RMK A01 T00400033  RH  095%=      5-min Rain = 0
KVA1 091348Z 02003KT 04/03 A3031 RMK A01 T00400033  RH  095%=      5-min Rain = 0
KVA1 091349Z 02003KT 04/03 A3031 RMK A01 T00410034  RH  095%=      5-min Rain = 0
KVA1 091350Z 03003KT 04/03 A3031 RMK A01 T00410034  RH  095%=      5-min Rain = 0
KVA1 091351Z 03003KT 04/03 A3032 RMK A01 T00410034  RH  095%=      5-min Rain = 0
KVA1 091352Z 03002KT 04/03 A3032 RMK A01 T00410034  RH  095%=      5-min Rain = 0
KVA1 091353Z 03002KT 04/03 A3032 RMK A01 T00410034  RH  095%=      5-min Rain = 0
KVA1 091354Z 01001KT 04/04 A3032 RMK A01 T00420035  RH  095%=      5-min Rain = 0
KVA1 091355Z 01002KT 04/04 A3032 RMK A01 T00420035  RH  095%=      5-min Rain = 0
KVA1 091356Z 01003KT 04/04 A3032 RMK A01 T00420036  RH  095%=      5-min Rain = 0
KVA1 091357Z 02003KT 04/04 A3032 RMK A01 T00430036  RH  095%=      5-min Rain = 0
KVA1 091358Z 02003KT 04/04 A3032 RMK A01 T00430037  RH  095%=      5-min Rain = 0
KVA1 091359Z 01002KT 04/04 A3032 RMK A01 T00440037  RH  095%=      5-min Rain = 0
KVA1 091400Z 02002KT 04/04 A3032 RMK A01 T00440037  RH  095%=      5-min Rain = 0
KVA1 091401Z 03002KT 05/04 A3032 RMK A01 T00450038  RH  095%=      5-min Rain = 0
KVA1 091402Z 03001KT 05/04 A3032 RMK A01 T00450038  RH  095%=      5-min Rain = 0
KVA1 091403Z 03002KT 05/04 A3032 RMK A01 T00460039  RH  095%=      5-min Rain = 0
KVA1 091404Z 03002KT 05/04 A3032 RMK A01 T00470039  RH  095%=      5-min Rain = 0
KVA1 091405Z 04002KT 05/04 A3032 RMK A01 T00470040  RH  095%=      5-min Rain = 0
KVA1 091406Z 04003KT 05/04 A3032 RMK A01 T00480039  RH  094%=      5-min Rain = 0
KVA1 091407Z 03003KT 05/04 A3032 RMK A01 T00480039  RH  094%=      5-min Rain = 0
KVA1 091408Z 03003KT 05/04 A3032 RMK A01 T00490040  RH  094%=      5-min Rain = 0
KVA1 091409Z 03002KT 05/04 A3032 RMK A01 T00500040  RH  093%=      5-min Rain = 0
KVA1 091410Z 02002KT 05/04 A3032 RMK A01 T00510040  RH  093%=      5-min Rain = 0
KVA1 091411Z 02002KT 05/04 A3032 RMK A01 T00510040  RH  093%=      5-min Rain = 0
KVA1 091412Z 02002KT 05/04 A3032 RMK A01 T00510040  RH  092%=      5-min Rain = 0
KVA1 091413Z 01002KT 05/04 A3032 RMK A01 T00520040  RH  092%=      5-min Rain = 0
KVA1 091414Z 02002KT 05/04 A3032 RMK A01 T00520040  RH  092%=      5-min Rain = 0
KVA1 091415Z 02002KT 05/04 A3032 RMK A01 T00530040  RH  092%=      5-min Rain = 0
KVA1 091416Z 05001KT 05/04 A3032 RMK A01 T00540041  RH  091%=      5-min Rain = 0
KVA1 091417Z 04001KT 06/04 A3032 RMK A01 T00560042  RH  091%=      5-min Rain = 0
KVA1 091418Z 03001KT 06/04 A3032 RMK A01 T00570042  RH  090%=      5-min Rain = 0
KVA1 091419Z 04002KT 06/04 A3032 RMK A01 T00580041  RH  089%=      5-min Rain = 0
KVA1 091420Z 04002KT 06/04 A3032 RMK A01 T00580040  RH  088%=      5-min Rain = 0
KVA1 091421Z 02002KT 06/04 A3032 RMK A01 T00570039  RH  088%=      5-min Rain = 0
KVA1 091422Z 01002KT 06/04 A3032 RMK A01 T00570040  RH  089%=      5-min Rain = 0
KVA1 091423Z 03001KT 06/04 A3032 RMK A01 T00570039  RH  088%=      5-min Rain = 0
KVA1 091424Z 04001KT 06/04 A3032 RMK A01 T00580040  RH  088%=      5-min Rain = 0
KVA1 091425Z 04002KT 06/04 A3032 RMK A01 T00580039  RH  088%=      5-min Rain = 0
KVA1 091426Z 05002KT 06/04 A3032 RMK A01 T00580040  RH  088%=      5-min Rain = 0
KVA1 091427Z 05002KT 06/04 A3032 RMK A01 T00590040  RH  088%=      5-min Rain = 0
KVA1 091428Z 05003KT 06/04 A3032 RMK A01 T00590039  RH  087%=      5-min Rain = 0
KVA1 091429Z 04003KT 06/04 A3032 RMK A01 T00590039  RH  087%=      5-min Rain = 0
KVA1 091430Z 04003KT 06/04 A3032 RMK A01 T00590040  RH  087%=      5-min Rain = 0
KVA1 091431Z 04003KT 06/04 A3032 RMK A01 T00600040  RH  087%=      5-min Rain = 0
KVA1 091432Z 04003KT 06/04 A3032 RMK A01 T00600040  RH  087%=      5-min Rain = 0
KVA1 091433Z 04002KT 06/04 A3032 RMK A01 T00610040  RH  087%=      5-min Rain = 0
KVA1 091434Z 03003KT 06/04 A3032 RMK A01 T00620042  RH  087%=      5-min Rain = 0
KVA1 091435Z 03004KT 06/04 A3032 RMK A01 T00640042  RH  086%=      5-min Rain = 0
KVA1 091436Z 04003KT 06/04 A3032 RMK A01 T00640040  RH  085%=      5-min Rain = 0
KVA1 091437Z 05003KT 06/04 A3032 RMK A01 T00630040  RH  085%=      5-min Rain = 0
KVA1 091438Z 04003KT 06/04 A3032 RMK A01 T00640041  RH  086%=      5-min Rain = 0
KVA1 091439Z 05003KT 07/04 A3032 RMK A01 T00650042  RH  086%=      5-min Rain = 0
KVA1 091440Z 05003KT 07/04 A3032 RMK A01 T00650042  RH  085%=      5-min Rain = 0
KVA1 091441Z 05003KT 07/04 A3032 RMK A01 T00650042  RH  085%=      5-min Rain = 0
KVA1 091442Z 06002KT 07/04 A3032 RMK A01 T00660043  RH  085%=      5-min Rain = 0
KVA1 091443Z 05002KT 07/04 A3032 RMK A01 T00680044  RH  085%=      5-min Rain = 0
KVA1 091444Z 05002KT 07/04 A3032 RMK A01 T00690043  RH  083%=      5-min Rain = 0
KVA1 091445Z 06003KT 07/04 A3032 RMK A01 T00690043  RH  083%=      5-min Rain = 0
KVA1 091446Z 07003KT 07/04 A3032 RMK A01 T00690042  RH  083%=      5-min Rain = 0
KVA1 091447Z 07003KT 07/04 A3032 RMK A01 T00690042  RH  083%=      5-min Rain = 0
KVA1 091448Z 07002KT 07/04 A3032 RMK A01 T00690042  RH  083%=      5-min Rain = 0
KVA1 091449Z 08003KT 07/04 A3032 RMK A01 T00700042  RH  082%=      5-min Rain = 0
KVA1 091450Z 06003KT 07/04 A3032 RMK A01 T00700043  RH  083%=      5-min Rain = 0
KVA1 091451Z 07003KT 07/04 A3032 RMK A01 T00700042  RH  082%=      5-min Rain = 0
KVA1 091452Z 08003KT 07/04 A3032 RMK A01 T00700042  RH  082%=      5-min Rain = 0
KVA1 091453Z 07002KT 07/04 A3032 RMK A01 T00710043  RH  082%=      5-min Rain = 0
KVA1 091454Z 06003KT 07/04 A3032 RMK A01 T00720043  RH  082%=      5-min Rain = 0
KVA1 091455Z 09002KT 07/05 A3032 RMK A01 T00740045  RH  082%=      5-min Rain = 0
KVA1 091456Z 08002KT 08/05 A3032 RMK A01 T00750045  RH  081%=      5-min Rain = 0
KVA1 091457Z 07002KT 08/04 A3032 RMK A01 T00750044  RH  081%=      5-min Rain = 0
KVA1 091458Z 09002KT 08/04 A3032 RMK A01 T00750044  RH  081%=      5-min Rain = 0
KVA1 091459Z 11003KT 08/05 A3032 RMK A01 T00760045  RH  081%=      5-min Rain = 0
KVA1 091500Z 09002KT 08/05 A3032 RMK A01 T00770046  RH  080%=      5-min Rain = 0
KVA1 091501Z 10002KT 08/05 A3032 RMK A01 T00790047  RH  080%=      5-min Rain = 0
KVA1 091502Z 10003KT 08/05 A3032 RMK A01 T00810048  RH  080%=      5-min Rain = 0
KVA1 091503Z 09002KT 08/05 A3032 RMK A01 T00820048  RH  079%=      5-min Rain = 0
KVA1 091504Z 10003KT 08/05 A3032 RMK A01 T00830048  RH  079%=      5-min Rain = 0
KVA1 091505Z 09003KT 08/05 A3032 RMK A01 T00830048  RH  079%=      5-min Rain = 0
KVA1 091506Z 09003KT 08/05 A3032 RMK A01 T00830049  RH  079%=      5-min Rain = 0
KVA1 091507Z 09003KT 08/05 A3032 RMK A01 T00830050  RH  079%=      5-min Rain = 0
KVA1 091508Z 09002KT 08/05 A3032 RMK A01 T00840049  RH  079%=      5-min Rain = 0
KVA1 091509Z 10002KT 09/05 A3032 RMK A01 T00850049  RH  079%=      5-min Rain = 0
KVA1 091510Z 07003KT 09/05 A3032 RMK A01 T00860050  RH  078%=      5-min Rain = 0
KVA1 091511Z 09003KT 09/05 A3032 RMK A01 T00860050  RH  078%=      5-min Rain = 0
KVA1 091512Z 10003KT 09/05 A3032 RMK A01 T00870051  RH  078%=      5-min Rain = 0
KVA1 091513Z 11003KT 09/05 A3032 RMK A01 T00880052  RH  078%=      5-min Rain = 0
KVA1 091514Z 10003KT 09/05 A3032 RMK A01 T00880052  RH  078%=      5-min Rain = 0
KVA1 091515Z 09003KT 09/05 A3032 RMK A01 T00880052  RH  078%=      5-min Rain = 0
KVA1 091516Z 09003KT 09/05 A3032 RMK A01 T00880053  RH  078%=      5-min Rain = 0
KVA1 091517Z 07002KT 09/05 A3032 RMK A01 T00880054  RH  079%=      5-min Rain = 0
KVA1 091518Z 06003KT 09/05 A3032 RMK A01 T00890054  RH  079%=      5-min Rain = 0
KVA1 091519Z 06003KT 09/05 A3032 RMK A01 T00900052  RH  077%=      5-min Rain = 0
KVA1 091520Z 06004KT 09/05 A3032 RMK A01 T00890053  RH  078%=      5-min Rain = 0
KVA1 091521Z 06003KT 09/05 A3032 RMK A01 T00890054  RH  078%=      5-min Rain = 0
KVA1 091522Z 05004KT 09/05 A3032 RMK A01 T00890054  RH  078%=      5-min Rain = 0
KVA1 091523Z 08003KT 09/05 A3032 RMK A01 T00900054  RH  078%=      5-min Rain = 0
KVA1 091524Z 06002KT 09/05 A3032 RMK A01 T00910054  RH  078%=      5-min Rain = 0
KVA1 091525Z 07003KT 09/06 A3032 RMK A01 T00920055  RH  077%=      5-min Rain = 0
KVA1 091526Z 06003KT 09/06 A3032 RMK A01 T00930055  RH  077%=      5-min Rain = 0
KVA1 091527Z 08003KT 09/06 A3032 RMK A01 T00930055  RH  077%=      5-min Rain = 0
KVA1 091528Z 08003KT 09/06 A3032 RMK A01 T00930055  RH  077%=      5-min Rain = 0
KVA1 091529Z 08004KT 09/06 A3032 RMK A01 T00930055  RH  077%=      5-min Rain = 0
KVA1 091530Z 08003KT 09/06 A3032 RMK A01 T00940055  RH  077%=      5-min Rain = 0
KVA1 091531Z 09004KT 09/06 A3032 RMK A01 T00940056  RH  077%=      5-min Rain = 0
KVA1 091532Z 06004KT 10/06 A3032 RMK A01 T00950056  RH  077%=      5-min Rain = 0
KVA1 091533Z 06003KT 10/06 A3032 RMK A01 T00960057  RH  076%=      5-min Rain = 0
KVA1 091534Z 06003KT 10/06 A3032 RMK A01 T00970057  RH  076%=      5-min Rain = 0
KVA1 091535Z 05005KT 10/06 A3032 RMK A01 T00980057  RH  076%=      5-min Rain = 0
KVA1 091536Z 06004KT 10/06 A3032 RMK A01 T00980057  RH  075%=      5-min Rain = 0
KVA1 091537Z 06003KT 10/06 A3032 RMK A01 T00980058  RH  076%=      5-min Rain = 0
KVA1 091538Z 07003KT 10/06 A3032 RMK A01 T00980058  RH  076%=      5-min Rain = 0
KVA1 091539Z 07002KT 10/06 A3032 RMK A01 T00990058  RH  076%=      5-min Rain = 0
KVA1 091540Z 05003KT 10/06 A3032 RMK A01 T01000059  RH  075%=      5-min Rain = 0
KVA1 091541Z 06003KT 10/06 A3032 RMK A01 T01010059  RH  075%=      5-min Rain = 0
KVA1 091542Z 06003KT 10/06 A3032 RMK A01 T01020058  RH  074%=      5-min Rain = 0
KVA1 091543Z 08003KT 10/06 A3032 RMK A01 T01020058  RH  074%=      5-min Rain = 0
KVA1 091544Z 07003KT 10/06 A3032 RMK A01 T01020059  RH  074%=      5-min Rain = 0
KVA1 091545Z 07002KT 10/06 A3032 RMK A01 T01040059  RH  074%=      5-min Rain = 0
KVA1 091546Z 06003KT 11/06 A3032 RMK A01 T01050060  RH  074%=      5-min Rain = 0
KVA1 091547Z 07002KT 11/06 A3032 RMK A01 T01060059  RH  072%=      5-min Rain = 0
KVA1 091548Z 08002KT 11/06 A3032 RMK A01 T01060059  RH  072%=      5-min Rain = 0
KVA1 091549Z 08003KT 11/06 A3032 RMK A01 T01070059  RH  072%=      5-min Rain = 0
KVA1 091550Z 07003KT 11/06 A3032 RMK A01 T01070059  RH  072%=      5-min Rain = 0
KVA1 091551Z 08003KT 11/06 A3032 RMK A01 T01070059  RH  072%=      5-min Rain = 0
KVA1 091552Z 07002KT 11/06 A3032 RMK A01 T01070059  RH  072%=      5-min Rain = 0
KVA1 091553Z 07003KT 11/06 A3032 RMK A01 T01070059  RH  072%=      5-min Rain = 0
KVA1 091554Z 06003KT 11/06 A3032 RMK A01 T01070059  RH  072%=      5-min Rain = 0
KVA1 091555Z 05002KT 11/06 A3032 RMK A01 T01060060  RH  073%=      5-min Rain = 0
KVA1 091556Z 03001KT 11/06 A3032 RMK A01 T01070060  RH  072%=      5-min Rain = 0
KVA1 091557Z 06002KT 11/06 A3032 RMK A01 T01090061  RH  072%=      5-min Rain = 0
KVA1 091558Z 06003KT 11/06 A3032 RMK A01 T01110061  RH  071%=      5-min Rain = 0
KVA1 091559Z 05002KT 11/06 A3032 RMK A01 T01130061  RH  071%=      5-min Rain = 0
KVA1 091600Z 06003KT 11/06 A3032 RMK A01 T01130060  RH  070%=      5-min Rain = 0
KVA1 091601Z 06004KT 11/06 A3032 RMK A01 T01140062  RH  070%=      5-min Rain = 0
KVA1 091602Z 05004KT 12/06 A3032 RMK A01 T01150061  RH  069%=      5-min Rain = 0
KVA1 091603Z 04003KT 11/06 A3032 RMK A01 T01140060  RH  070%=      5-min Rain = 0
KVA1 091604Z 02002KT 11/06 A3032 RMK A01 T01130060  RH  070%=      5-min Rain = 0
KVA1 091605Z 03003KT 11/06 A3032 RMK A01 T01130060  RH  070%=      5-min Rain = 0
KVA1 091606Z 05003KT 11/06 A3032 RMK A01 T01140061  RH  070%=      5-min Rain = 0
KVA1 091607Z 05002KT 11/06 A3033 RMK A01 T01140061  RH  069%=      5-min Rain = 0
KVA1 091608Z 05004KT 12/06 A3033 RMK A01 T01150061  RH  070%=      5-min Rain = 0
KVA1 091609Z 08001KT 12/06 A3033 RMK A01 T01150061  RH  070%=      5-min Rain = 0
KVA1 091610Z 11001KT 12/06 A3033 RMK A01 T01160062  RH  069%=      5-min Rain = 0
KVA1 091611Z 09002KT 12/06 A3033 RMK A01 T01190063  RH  069%=      5-min Rain = 0
KVA1 091612Z 11001KT 12/06 A3033 RMK A01 T01200062  RH  068%=      5-min Rain = 0
KVA1 091613Z 06003KT 12/06 A3033 RMK A01 T01210062  RH  067%=      5-min Rain = 0
KVA1 091614Z 04003KT 12/06 A3033 RMK A01 T01200062  RH  067%=      5-min Rain = 0
KVA1 091615Z 04002KT 12/06 A3032 RMK A01 T01180061  RH  068%=      5-min Rain = 0
KVA1 091616Z 08002KT 12/06 A3032 RMK A01 T01170062  RH  069%=      5-min Rain = 0
KVA1 091617Z 08002KT 12/06 A3032 RMK A01 T01180062  RH  069%=      5-min Rain = 0
KVA1 091618Z 05002KT 12/06 A3032 RMK A01 T01190063  RH  068%=      5-min Rain = 0
KVA1 091619Z 05003KT 12/06 A3032 RMK A01 T01210063  RH  068%=      5-min Rain = 0
KVA1 091620Z 06003KT 12/06 A3032 RMK A01 T01220063  RH  067%=      5-min Rain = 0
KVA1 091621Z 04002KT 12/06 A3032 RMK A01 T01220063  RH  067%=      5-min Rain = 0
KVA1 091622Z 04000KT 12/06 A3032 RMK A01 T01220063  RH  067%=      5-min Rain = 0
KVA1 091623Z 05001KT 12/06 A3032 RMK A01 T01230064  RH  067%=      5-min Rain = 0
KVA1 091624Z 00000KT 12/06 A3032 RMK A01 T01230063  RH  067%=      5-min Rain = 0
KVA1 091625Z 05002KT 12/06 A3032 RMK A01 T01230063  RH  067%=      5-min Rain = 0
KVA1 091626Z 08001KT 12/06 A3032 RMK A01 T01240063  RH  066%=      5-min Rain = 0
KVA1 091627Z 12001KT 13/06 A3032 RMK A01 T01260064  RH  066%=      5-min Rain = 0
KVA1 091628Z 10002KT 13/06 A3033 RMK A01 T01270064  RH  065%=      5-min Rain = 0
KVA1 091629Z 12002KT 13/06 A3033 RMK A01 T01280064  RH  065%=      5-min Rain = 0
KVA1 091630Z 10002KT 13/07 A3033 RMK A01 T01290066  RH  065%=      5-min Rain = 0
KVA1 091631Z 07000KT 13/07 A3032 RMK A01 T01310065  RH  064%=      5-min Rain = 0
KVA1 091632Z 03003KT 13/07 A3032 RMK A01 T01310065  RH  064%=      5-min Rain = 0
KVA1 091633Z 02003KT 13/07 A3032 RMK A01 T01300065  RH  065%=      5-min Rain = 0
KVA1 091634Z 03002KT 13/06 A3032 RMK A01 T01290064  RH  065%=      5-min Rain = 0
KVA1 091635Z 08002KT 13/06 A3032 RMK A01 T01280064  RH  065%=      5-min Rain = 0
KVA1 091636Z 08002KT 13/06 A3032 RMK A01 T01280064  RH  065%=      5-min Rain = 0
KVA1 091637Z 05002KT 13/07 A3032 RMK A01 T01290065  RH  065%=      5-min Rain = 0
KVA1 091638Z 07003KT 13/07 A3032 RMK A01 T01300066  RH  065%=      5-min Rain = 0
KVA1 091639Z 07003KT 13/07 A3032 RMK A01 T01320066  RH  064%=      5-min Rain = 0
KVA1 091640Z 06003KT 13/07 A3032 RMK A01 T01320065  RH  064%=      5-min Rain = 0
KVA1 091641Z 06003KT 13/07 A3032 RMK A01 T01300065  RH  064%=      5-min Rain = 0
KVA1 091642Z 05002KT 13/07 A3032 RMK A01 T01300066  RH  065%=      5-min Rain = 0
KVA1 091643Z 01001KT 13/07 A3032 RMK A01 T01290065  RH  065%=      5-min Rain = 0
KVA1 091644Z 34001KT 13/07 A3032 RMK A01 T01290065  RH  065%=      5-min Rain = 0
KVA1 091645Z 31001KT 13/06 A3032 RMK A01 T01290064  RH  065%=      5-min Rain = 0
KVA1 091646Z 35001KT 13/07 A3032 RMK A01 T01290065  RH  065%=      5-min Rain = 0
KVA1 091647Z 02001KT 13/07 A3032 RMK A01 T01300066  RH  065%=      5-min Rain = 0
KVA1 091648Z 03002KT 13/07 A3032 RMK A01 T01340068  RH  064%=      5-min Rain = 0
KVA1 091649Z 06003KT 14/07 A3032 RMK A01 T01360068  RH  063%=      5-min Rain = 0
KVA1 091650Z 06003KT 14/07 A3032 RMK A01 T01350066  RH  063%=      5-min Rain = 0
KVA1 091651Z 07003KT 13/07 A3032 RMK A01 T01330067  RH  064%=      5-min Rain = 0
KVA1 091652Z 09003KT 13/07 A3032 RMK A01 T01340068  RH  064%=      5-min Rain = 0
KVA1 091653Z 10002KT 14/07 A3032 RMK A01 T01360068  RH  063%=      5-min Rain = 0
KVA1 091654Z 12002KT 14/07 A3032 RMK A01 T01370069  RH  063%=      5-min Rain = 0
KVA1 091655Z 15002KT 14/07 A3032 RMK A01 T01370069  RH  063%=      5-min Rain = 0
KVA1 091656Z 15001KT 14/07 A3032 RMK A01 T01370068  RH  063%=      5-min Rain = 0
KVA1 091657Z 17000KT 14/07 A3032 RMK A01 T01380068  RH  062%=      5-min Rain = 0
KVA1 091658Z 20000KT 14/07 A3032 RMK A01 T01380068  RH  062%=      5-min Rain = 0
KVA1 091659Z 22001KT 14/07 A3031 RMK A01 T01400070  RH  063%=      5-min Rain = 0
KVA1 091700Z 23002KT 14/07 A3032 RMK A01 T01410070  RH  062%=      5-min Rain = 0
KVA1 091701Z 24001KT 14/07 A3032 RMK A01 T01420069  RH  061%=      5-min Rain = 0
KVA1 091702Z 16000KT 14/07 A3032 RMK A01 T01420069  RH  061%=      5-min Rain = 0
KVA1 091703Z 13002KT 14/07 A3032 RMK A01 T01440070  RH  061%=      5-min Rain = 0
KVA1 091704Z 20001KT 15/07 A3032 RMK A01 T01450070  RH  060%=      5-min Rain = 0
KVA1 091705Z 18001KT 15/07 A3032 RMK A01 T01470072  RH  061%=      5-min Rain = 0
KVA1 091706Z 14000KT 15/07 A3032 RMK A01 T01490073  RH  060%=      5-min Rain = 0
KVA1 091707Z 26001KT 15/07 A3031 RMK A01 T01510073  RH  059%=      5-min Rain = 0
KVA1 091708Z 21001KT 15/07 A3031 RMK A01 T01520072  RH  059%=      5-min Rain = 0
KVA1 091709Z 18001KT 15/07 A3031 RMK A01 T01520071  RH  059%=      5-min Rain = 0
KVA1 091710Z 17003KT 15/07 A3031 RMK A01 T01510071  RH  059%=      5-min Rain = 0
KVA1 091711Z 16001KT 15/07 A3031 RMK A01 T01500072  RH  059%=      5-min Rain = 0
KVA1 091712Z 14000KT 15/07 A3031 RMK A01 T01500071  RH  059%=      5-min Rain = 0
KVA1 091713Z 14004KT 15/07 A3031 RMK A01 T01500073  RH  060%=      5-min Rain = 0
KVA1 091714Z 13002KT 15/07 A3031 RMK A01 T01530072  RH  059%=      5-min Rain = 0
KVA1 091715Z 10002KT 15/07 A3031 RMK A01 T01540072  RH  058%=      5-min Rain = 0
KVA1 091716Z 12001KT 15/07 A3031 RMK A01 T01540073  RH  058%=      5-min Rain = 0
KVA1 091717Z 21001KT 15/07 A3031 RMK A01 T01540073  RH  059%=      5-min Rain = 0
KVA1 091718Z 20002KT 16/07 A3031 RMK A01 T01550074  RH  059%=      5-min Rain = 0
KVA1 091719Z 17002KT 15/07 A3031 RMK A01 T01540074  RH  059%=      5-min Rain = 0
KVA1 091720Z 16002KT 16/08 A3031 RMK A01 T01560076  RH  059%=      5-min Rain = 0
KVA1 091721Z 19004KT 16/08 A3031 RMK A01 T01580077  RH  059%=      5-min Rain = 0
KVA1 091722Z 20003KT 16/08 A3031 RMK A01 T01580077  RH  059%=      5-min Rain = 0
KVA1 091723Z 19003KT 16/08 A3031 RMK A01 T01560076  RH  059%=      5-min Rain = 0
KVA1 091724Z 19002KT 16/08 A3031 RMK A01 T01550076  RH  059%=      5-min Rain = 0
KVA1 091725Z 19004KT 16/08 A3031 RMK A01 T01550077  RH  060%=      5-min Rain = 0
KVA1 091726Z 21004KT 16/08 A3031 RMK A01 T01560077  RH  059%=      5-min Rain = 0
KVA1 091727Z 20004KT 16/08 A3031 RMK A01 T01560076  RH  059%=      5-min Rain = 0
KVA1 091728Z 20004KT 15/08 A3031 RMK A01 T01540076  RH  060%=      5-min Rain = 0
KVA1 091729Z 21003KT 15/08 A303 RMK A01 T01530076  RH  060%=      5-min Rain = 0
KVA1 091730Z 22002KT 15/08 A303 RMK A01 T01530077  RH  061%=      5-min Rain = 0
KVA1 091731Z 22001KT 15/08 A303 RMK A01 T01530077  RH  061%=      5-min Rain = 0
KVA1 091732Z 26001KT 15/08 A303 RMK A01 T01530077  RH  060%=      5-min Rain = 0
KVA1 091733Z 12000KT 15/08 A303 RMK A01 T01530077  RH  060%=      5-min Rain = 0
KVA1 091734Z 13002KT 15/08 A303 RMK A01 T01540078  RH  060%=      5-min Rain = 0
KVA1 091735Z 14002KT 16/08 A303 RMK A01 T01550077  RH  060%=      5-min Rain = 0
KVA1 091736Z 12003KT 16/08 A303 RMK A01 T01560078  RH  060%=      5-min Rain = 0
KVA1 091737Z 12002KT 16/08 A303 RMK A01 T01570079  RH  060%=      5-min Rain = 0
KVA1 091738Z 10002KT 16/08 A303 RMK A01 T01580079  RH  059%=      5-min Rain = 0
KVA1 091739Z 12003KT 16/08 A303 RMK A01 T01600080  RH  059%=      5-min Rain = 0
KVA1 091740Z 11003KT 16/08 A303 RMK A01 T01610079  RH  058%=      5-min Rain = 0
KVA1 091741Z 10004KT 16/08 A303 RMK A01 T01600079  RH  058%=      5-min Rain = 0
KVA1 091742Z 14002KT 16/08 A303 RMK A01 T01580079  RH  059%=      5-min Rain = 0
KVA1 091743Z 17002KT 16/08 A303 RMK A01 T01580079  RH  059%=      5-min Rain = 0
KVA1 091744Z 19003KT 16/08 A303 RMK A01 T01590079  RH  059%=      5-min Rain = 0
KVA1 091745Z 21003KT 16/08 A303 RMK A01 T01610081  RH  059%=      5-min Rain = 0
KVA1 091746Z 22002KT 16/08 A303 RMK A01 T01610080  RH  059%=      5-min Rain = 0
KVA1 091747Z 25002KT 16/08 A303 RMK A01 T01600081  RH  059%=      5-min Rain = 0
KVA1 091748Z 21003KT 16/08 A303 RMK A01 T01600081  RH  059%=      5-min Rain = 0
KVA1 091749Z 20004KT 16/08 A303 RMK A01 T01620083  RH  059%=      5-min Rain = 0
KVA1 091750Z 18002KT 16/08 A303 RMK A01 T01630082  RH  059%=      5-min Rain = 0
KVA1 091751Z 17002KT 16/08 A303 RMK A01 T01630083  RH  059%=      5-min Rain = 0
KVA1 091752Z 18003KT 17/08 A303 RMK A01 T01660084  RH  058%=      5-min Rain = 0
KVA1 091753Z 19004KT 17/08 A303 RMK A01 T01670084  RH  058%=      5-min Rain = 0
KVA1 091754Z 20002KT 17/08 A303 RMK A01 T01650084  RH  059%=      5-min Rain = 0
KVA1 091755Z 18002KT 16/08 A3029 RMK A01 T01640084  RH  059%=      5-min Rain = 0
KVA1 091756Z 19001KT 17/08 A3029 RMK A01 T01650084  RH  059%=      5-min Rain = 0
KVA1 091757Z 12001KT 17/08 A3029 RMK A01 T01650084  RH  059%=      5-min Rain = 0
KVA1 091758Z 18001KT 17/08 A3029 RMK A01 T01660084  RH  058%=      5-min Rain = 0
KVA1 091759Z 11002KT 17/09 A3029 RMK A01 T01670085  RH  058%=      5-min Rain = 0
KVA1 091800Z 11004KT 17/09 A3029 RMK A01 T01690086  RH  058%=      5-min Rain = 0
KVA1 091801Z 13003KT 17/09 A3029 RMK A01 T01700085  RH  057%=      5-min Rain = 0
KVA1 091802Z 14003KT 17/09 A3029 RMK A01 T01710085  RH  057%=      5-min Rain = 0
KVA1 091803Z 16003KT 17/08 A3029 RMK A01 T01720084  RH  056%=      5-min Rain = 0
KVA1 091804Z 17002KT 17/08 A3029 RMK A01 T01730084  RH  056%=      5-min Rain = 0
KVA1 091805Z 17002KT 17/09 A3029 RMK A01 T01740085  RH  056%=      5-min Rain = 0
KVA1 091806Z 18004KT 18/09 A3029 RMK A01 T01750088  RH  057%=      5-min Rain = 0
KVA1 091807Z 17005KT 18/09 A3029 RMK A01 T01760089  RH  057%=      5-min Rain = 0
KVA1 091808Z 18005KT 18/09 A3029 RMK A01 T01760089  RH  057%=      5-min Rain = 0
KVA1 091809Z 20004KT 18/09 A3029 RMK A01 T01760089  RH  057%=      5-min Rain = 0
KVA1 091810Z 19005KT 18/09 A3029 RMK A01 T01770088  RH  056%=      5-min Rain = 0
KVA1 091811Z 19003KT 18/09 A3029 RMK A01 T01770087  RH  056%=      5-min Rain = 0
KVA1 091812Z 14003KT 18/09 A3029 RMK A01 T01760088  RH  056%=      5-min Rain = 0
KVA1 091813Z 16006KT 18/09 A3029 RMK A01 T01780089  RH  056%=      5-min Rain = 0
KVA1 091814Z 19003KT 18/09 A3028 RMK A01 T01810089  RH  055%=      5-min Rain = 0
KVA1 091815Z 18005KT 18/09 A3028 RMK A01 T01810088  RH  055%=      5-min Rain = 0
KVA1 091816Z 17006KT 18/09 A3028 RMK A01 T01810088  RH  055%=      5-min Rain = 0
KVA1 091817Z 18004KT 18/09 A3028 RMK A01 T01800088  RH  055%=      5-min Rain = 0
KVA1 091818Z 19006KT 18/09 A3028 RMK A01 T01790088  RH  055%=      5-min Rain = 0
KVA1 091819Z 19005KT 18/09 A3028 RMK A01 T01780087  RH  055%=      5-min Rain = 0
KVA1 091820Z 19006KT 18/09 A3028 RMK A01 T01780088  RH  056%=      5-min Rain = 0
KVA1 091821Z 19005KT 18/09 A3028 RMK A01 T01790088  RH  055%=      5-min Rain = 0
KVA1 091822Z 19004KT 18/09 A3028 RMK A01 T01770087  RH  056%=      5-min Rain = 0
KVA1 091823Z 18003KT 18/09 A3028 RMK A01 T01770088  RH  056%=      5-min Rain = 0
KVA1 091824Z 17002KT 18/09 A3028 RMK A01 T01770088  RH  056%=      5-min Rain = 0
KVA1 091825Z 15002KT 18/09 A3027 RMK A01 T01790088  RH  055%=      5-min Rain = 0
KVA1 091826Z 19002KT 18/09 A3027 RMK A01 T01800089  RH  055%=      5-min Rain = 0
KVA1 091827Z 22002KT 18/09 A3027 RMK A01 T01810088  RH  055%=      5-min Rain = 0
KVA1 091828Z 15002KT 18/09 A3027 RMK A01 T01830091  RH  055%=      5-min Rain = 0
KVA1 091829Z 16002KT 19/09 A3027 RMK A01 T01860091  RH  054%=      5-min Rain = 0
KVA1 091830Z 20004KT 19/09 A3027 RMK A01 T01860091  RH  054%=      5-min Rain = 0
KVA1 091831Z 20003KT 19/09 A3027 RMK A01 T01860091  RH  054%=      5-min Rain = 0
KVA1 091832Z 24005KT 19/09 A3027 RMK A01 T01860092  RH  054%=      5-min Rain = 0
KVA1 091833Z 25004KT 19/09 A3027 RMK A01 T01860091  RH  054%=      5-min Rain = 0
KVA1 091834Z 25004KT 19/09 A3027 RMK A01 T01850090  RH  054%=      5-min Rain = 0
KVA1 091835Z 25003KT 19/09 A3027 RMK A01 T01850090  RH  054%=      5-min Rain = 0
KVA1 091836Z 24002KT 19/09 A3027 RMK A01 T01850091  RH  054%=      5-min Rain = 0
KVA1 091837Z 22002KT 19/09 A3026 RMK A01 T01850091  RH  054%=      5-min Rain = 0
KVA1 091838Z 19002KT 19/09 A3026 RMK A01 T01870091  RH  054%=      5-min Rain = 0
KVA1 091839Z 20005KT 19/09 A3026 RMK A01 T01880092  RH  054%=      5-min Rain = 0
KVA1 091840Z 22004KT 19/09 A3026 RMK A01 T01880092  RH  054%=      5-min Rain = 0
KVA1 091841Z 19003KT 19/09 A3026 RMK A01 T01870092  RH  054%=      5-min Rain = 0
KVA1 091842Z 22002KT 19/09 A3026 RMK A01 T01870092  RH  054%=      5-min Rain = 0
KVA1 091843Z 00000KT 19/09 A3026 RMK A01 T01880091  RH  053%=      5-min Rain = 0
KVA1 091844Z 18005KT 19/09 A3026 RMK A01 T01890092  RH  053%=      5-min Rain = 0
KVA1 091845Z 17004KT 19/09 A3026 RMK A01 T01910093  RH  053%=      5-min Rain = 0
KVA1 091846Z 21002KT 19/09 A3026 RMK A01 T01920092  RH  052%=      5-min Rain = 0
KVA1 091847Z 21007KT 19/09 A3026 RMK A01 T01920092  RH  052%=      5-min Rain = 0
KVA1 091848Z 21005KT 19/09 A3026 RMK A01 T01900091  RH  053%=      5-min Rain = 0
KVA1 091849Z 21003KT 19/09 A3026 RMK A01 T01890092  RH  053%=      5-min Rain = 0
KVA1 091850Z 22005KT 19/09 A3025 RMK A01 T01880092  RH  053%=      5-min Rain = 0
KVA1 091851Z 23005KT 19/09 A3025 RMK A01 T01880092  RH  054%=      5-min Rain = 0
KVA1 091852Z 21003KT 19/09 A3025 RMK A01 T01880092  RH  053%=      5-min Rain = 0
KVA1 091853Z 25004KT 19/09 A3025 RMK A01 T01880091  RH  054%=      5-min Rain = 0
KVA1 091854Z 26004KT 19/09 A3025 RMK A01 T01880092  RH  054%=      5-min Rain = 0
KVA1 091855Z 28005KT 19/09 A3025 RMK A01 T01910094  RH  053%=      5-min Rain = 0
KVA1 091856Z 28005KT 19/09 A3025 RMK A01 T01920094  RH  053%=      5-min Rain = 0
KVA1 091857Z 24005KT 19/09 A3025 RMK A01 T01930094  RH  053%=      5-min Rain = 0
KVA1 091858Z 21004KT 19/09 A3025 RMK A01 T01940094  RH  052%=      5-min Rain = 0
KVA1 091859Z 20003KT 20/10 A3025 RMK A01 T01950095  RH  052%=      5-min Rain = 0
KVA1 091900Z 21004KT 20/09 A3025 RMK A01 T01970094  RH  052%=      5-min Rain = 0
KVA1 091901Z 19002KT 20/09 A3025 RMK A01 T01960094  RH  051%=      5-min Rain = 0
KVA1 091902Z 23002KT 20/09 A3025 RMK A01 T01950093  RH  052%=      5-min Rain = 0
KVA1 091903Z 23002KT 20/09 A3025 RMK A01 T01950093  RH  052%=      5-min Rain = 0
KVA1 091904Z 24004KT 20/09 A3025 RMK A01 T01950094  RH  052%=      5-min Rain = 0
KVA1 091905Z 20006KT 20/09 A3025 RMK A01 T01960094  RH  052%=      5-min Rain = 0
KVA1 091906Z 18006KT 20/09 A3025 RMK A01 T01970094  RH  051%=      5-min Rain = 0
KVA1 091907Z 18003KT 20/09 A3025 RMK A01 T01960094  RH  052%=      5-min Rain = 0
KVA1 091908Z 18004KT 20/10 A3025 RMK A01 T01960095  RH  052%=      5-min Rain = 0
KVA1 091909Z 20005KT 20/10 A3025 RMK A01 T01980096  RH  052%=      5-min Rain = 0
KVA1 091910Z 22004KT 20/09 A3025 RMK A01 T01980094  RH  051%=      5-min Rain = 0
KVA1 091911Z 24005KT 20/10 A3025 RMK A01 T01970095  RH  052%=      5-min Rain = 0
KVA1 091912Z 22005KT 20/10 A3024 RMK A01 T01970096  RH  052%=      5-min Rain = 0
KVA1 091913Z 21006KT 20/10 A3024 RMK A01 T01990095  RH  051%=      5-min Rain = 0
KVA1 091914Z 23006KT 20/10 A3024 RMK A01 T01990095  RH  051%=      5-min Rain = 0
KVA1 091915Z 24007KT 20/10 A3024 RMK A01 T01980095  RH  051%=      5-min Rain = 0
KVA1 091916Z 22007KT 20/10 A3024 RMK A01 T01990095  RH  051%=      5-min Rain = 0
KVA1 091917Z 21005KT 20/09 A3024 RMK A01 T01990094  RH  051%=      5-min Rain = 0
KVA1 091918Z 20003KT 20/09 A3024 RMK A01 T01970094  RH  051%=      5-min Rain = 0
KVA1 091919Z 18002KT 20/10 A3024 RMK A01 T01970095  RH  052%=      5-min Rain = 0
KVA1 091920Z 18002KT 20/10 A3024 RMK A01 T01990095  RH  051%=      5-min Rain = 0
KVA1 091921Z 25004KT 20/10 A3024 RMK A01 T02000096  RH  051%=      5-min Rain = 0
KVA1 091922Z 24005KT 20/10 A3024 RMK A01 T02020096  RH  051%=      5-min Rain = 0
KVA1 091923Z 19005KT 20/10 A3024 RMK A01 T02020096  RH  050%=      5-min Rain = 0
KVA1 091924Z 19004KT 20/10 A3024 RMK A01 T02030096  RH  050%=      5-min Rain = 0
KVA1 091925Z 20009G17KT 20/10 A3024 RMK A01 T02020097  RH  051%=      5-min Rain = 0
KVA1 091926Z 24005KT 20/10 A3024 RMK A01 T02040096  RH  050%=      5-min Rain = 0
KVA1 091927Z 23003KT 21/10 A3024 RMK A01 T02050096  RH  050%=      5-min Rain = 0
KVA1 091928Z 24003KT 21/10 A3023 RMK A01 T02050096  RH  049%=      5-min Rain = 0
KVA1 091929Z 24004KT 21/10 A3023 RMK A01 T02060096  RH  049%=      5-min Rain = 0
KVA1 091930Z 19003KT 21/10 A3023 RMK A01 T02050095  RH  049%=      5-min Rain = 0
KVA1 091931Z 19005KT 21/10 A3023 RMK A01 T02060098  RH  050%=      5-min Rain = 0
KVA1 091932Z 19004KT 21/10 A3023 RMK A01 T02070096  RH  049%=      5-min Rain = 0
KVA1 091933Z 19005KT 21/10 A3023 RMK A01 T02080097  RH  049%=      5-min Rain = 0
KVA1 091934Z 20006KT 21/10 A3023 RMK A01 T02080097  RH  049%=      5-min Rain = 0
KVA1 091935Z 20007KT 21/10 A3023 RMK A01 T02060096  RH  049%=      5-min Rain = 0
KVA1 091936Z 19007KT 21/10 A3022 RMK A01 T02060096  RH  049%=      5-min Rain = 0
KVA1 091937Z 19005KT 21/10 A3022 RMK A01 T02070096  RH  049%=      5-min Rain = 0
KVA1 091938Z 18006KT 21/10 A3022 RMK A01 T02070096  RH  049%=      5-min Rain = 0
KVA1 091939Z 16006KT 21/10 A3022 RMK A01 T02090096  RH  049%=      5-min Rain = 0
KVA1 091940Z 15004KT 21/10 A3022 RMK A01 T02090097  RH  049%=      5-min Rain = 0
KVA1 091941Z 17005KT 21/10 A3022 RMK A01 T02090097  RH  049%=      5-min Rain = 0
KVA1 091942Z 18003KT 21/10 A3022 RMK A01 T02080096  RH  049%=      5-min Rain = 0
KVA1 091943Z 20004KT 21/10 A3022 RMK A01 T02060096  RH  049%=      5-min Rain = 0
KVA1 091944Z 20004KT 21/10 A3022 RMK A01 T02060095  RH  049%=      5-min Rain = 0
KVA1 091945Z 17001KT 20/10 A3022 RMK A01 T02040095  RH  050%=      5-min Rain = 0
KVA1 091946Z 10001KT 20/10 A3022 RMK A01 T02040095  RH  050%=      5-min Rain = 0
KVA1 091947Z 04001KT 20/10 A3022 RMK A01 T02040095  RH  049%=      5-min Rain = 0
KVA1 091948Z 22002KT 21/10 A3022 RMK A01 T02050096  RH  050%=      5-min Rain = 0
KVA1 091949Z 20005KT 21/10 A3022 RMK A01 T02060096  RH  049%=      5-min Rain = 0
KVA1 091950Z 21004KT 21/10 A3022 RMK A01 T02070095  RH  049%=      5-min Rain = 0
KVA1 091951Z 20004KT 21/10 A3021 RMK A01 T02070096  RH  049%=      5-min Rain = 0
KVA1 091952Z 21007KT 21/10 A3021 RMK A01 T02080097  RH  049%=      5-min Rain = 0
KVA1 091953Z 24006KT 21/10 A3021 RMK A01 T02090097  RH  049%=      5-min Rain = 0
KVA1 091954Z 24004KT 21/10 A3021 RMK A01 T02090097  RH  049%=      5-min Rain = 0
KVA1 091955Z 25005KT 21/10 A3021 RMK A01 T02080096  RH  049%=      5-min Rain = 0
KVA1 091956Z 22007KT 21/10 A3021 RMK A01 T02080098  RH  049%=      5-min Rain = 0
KVA1 091957Z 22004KT 21/10 A3021 RMK A01 T02090097  RH  049%=      5-min Rain = 0
KVA1 091958Z 23006KT 21/10 A3021 RMK A01 T02100098  RH  049%=      5-min Rain = 0
KVA1 091959Z 23006KT 21/10 A3021 RMK A01 T02100097  RH  048%=      5-min Rain = 0
KVA1 092000Z 22004KT 21/10 A3021 RMK A01 T02110097  RH  048%=      5-min Rain = 0
KVA1 092001Z 21005KT 21/10 A3021 RMK A01 T02100096  RH  048%=      5-min Rain = 0
KVA1 092002Z 21005KT 21/10 A3021 RMK A01 T02100097  RH  048%=      5-min Rain = 0
KVA1 092003Z 21006KT 21/10 A3021 RMK A01 T02120098  RH  048%=      5-min Rain = 0
KVA1 092004Z 20005KT 21/10 A3021 RMK A01 T02130098  RH  048%=      5-min Rain = 0
KVA1 092005Z 20004KT 21/10 A3021 RMK A01 T02140097  RH  047%=      5-min Rain = 0
KVA1 092006Z 18005KT 21/10 A3021 RMK A01 T02140097  RH  047%=      5-min Rain = 0
KVA1 092007Z 17007KT 22/10 A3021 RMK A01 T02150098  RH  047%=      5-min Rain = 0
KVA1 092008Z 17006KT 22/10 A3021 RMK A01 T02150097  RH  047%=      5-min Rain = 0
KVA1 092009Z 20004KT 21/10 A3021 RMK A01 T02140098  RH  047%=      5-min Rain = 0
KVA1 092010Z 19005KT 22/10 A3021 RMK A01 T02150099  RH  048%=      5-min Rain = 0
KVA1 092011Z 19006KT 22/10 A3021 RMK A01 T02170099  RH  047%=      5-min Rain = 0
KVA1 092012Z 18005KT 22/10 A3021 RMK A01 T02170098  RH  047%=      5-min Rain = 0
KVA1 092013Z 16003KT 22/10 A3021 RMK A01 T02150097  RH  047%=      5-min Rain = 0
KVA1 092014Z 16003KT 21/10 A3021 RMK A01 T02140097  RH  047%=      5-min Rain = 0
KVA1 092015Z 21007KT 21/10 A3021 RMK A01 T02140099  RH  048%=      5-min Rain = 0
KVA1 092016Z 22007KT 22/10 A3021 RMK A01 T02160099  RH  047%=      5-min Rain = 0
KVA1 092017Z 19006KT 22/10 A3021 RMK A01 T02150098  RH  047%=      5-min Rain = 0
KVA1 092018Z 20004KT 21/10 A3021 RMK A01 T02140098  RH  047%=      5-min Rain = 0
KVA1 092019Z 21003KT 21/10 A3021 RMK A01 T02140098  RH  047%=      5-min Rain = 0
KVA1 092020Z 25001KT 21/10 A3021 RMK A01 T02140097  RH  047%=      5-min Rain = 0
KVA1 092021Z 24003KT 21/10 A3021 RMK A01 T02140099  RH  048%=      5-min Rain = 0
KVA1 092022Z 25003KT 22/10 A302 RMK A01 T02160099  RH  047%=      5-min Rain = 0
KVA1 092023Z 25001KT 22/10 A302 RMK A01 T02160098  RH  047%=      5-min Rain = 0
KVA1 092024Z 20002KT 22/10 A302 RMK A01 T02160098  RH  047%=      5-min Rain = 0
KVA1 092025Z 17006KT 22/10 A302 RMK A01 T02160099  RH  047%=      5-min Rain = 0
KVA1 092026Z 14004KT 22/10 A302 RMK A01 T02170099  RH  047%=      5-min Rain = 0
KVA1 092027Z 15004KT 22/10 A302 RMK A01 T02190100  RH  047%=      5-min Rain = 0
KVA1 092028Z 16003KT 22/10 A302 RMK A01 T02210100  RH  046%=      5-min Rain = 0
KVA1 092029Z 17004KT 22/10 A302 RMK A01 T02230100  RH  046%=      5-min Rain = 0
KVA1 092030Z 23005KT 22/10 A302 RMK A01 T02230099  RH  045%=      5-min Rain = 0
KVA1 092031Z 24004KT 22/10 A302 RMK A01 T02210097  RH  045%=      5-min Rain = 0
KVA1 092032Z 23004KT 22/10 A302 RMK A01 T02200097  RH  046%=      5-min Rain = 0
KVA1 092033Z 17002KT 22/10 A302 RMK A01 T02200097  RH  045%=      5-min Rain = 0
KVA1 092034Z 16002KT 22/10 A302 RMK A01 T02200098  RH  046%=      5-min Rain = 0
KVA1 092035Z 18002KT 22/10 A302 RMK A01 T02210098  RH  045%=      5-min Rain = 0
KVA1 092036Z 21001KT 22/10 A302 RMK A01 T02210098  RH  046%=      5-min Rain = 0
KVA1 092037Z 16003KT 22/10 A302 RMK A01 T02210098  RH  045%=      5-min Rain = 0
KVA1 092038Z 15006KT 22/10 A3019 RMK A01 T02210098  RH  046%=      5-min Rain = 0
KVA1 092039Z 18008KT 22/10 A3019 RMK A01 T02210099  RH  046%=      5-min Rain = 0
KVA1 092040Z 17009KT 22/10 A3019 RMK A01 T02220099  RH  046%=      5-min Rain = 0
KVA1 092041Z 16007KT 22/10 A3019 RMK A01 T02220099  RH  045%=      5-min Rain = 0
KVA1 092042Z 16006KT 22/10 A3019 RMK A01 T02220098  RH  045%=      5-min Rain = 0
KVA1 092043Z 16005KT 22/10 A3019 RMK A01 T02220097  RH  045%=      5-min Rain = 0
KVA1 092044Z 16004KT 22/10 A3019 RMK A01 T02210097  RH  045%=      5-min Rain = 0
KVA1 092045Z 15004KT 22/10 A3019 RMK A01 T02220096  RH  045%=      5-min Rain = 0
KVA1 092046Z 14004KT 22/09 A3019 RMK A01 T02230094  RH  044%=      5-min Rain = 0
KVA1 092047Z 17002KT 22/10 A3019 RMK A01 T02230095  RH  044%=      5-min Rain = 0
KVA1 092048Z 16002KT 22/10 A3019 RMK A01 T02230096  RH  044%=      5-min Rain = 0
KVA1 092049Z 18002KT 22/10 A3019 RMK A01 T02220096  RH  045%=      5-min Rain = 0
KVA1 092050Z 15001KT 22/10 A3019 RMK A01 T02220097  RH  045%=      5-min Rain = 0
KVA1 092051Z 17004KT 22/10 A3019 RMK A01 T02230097  RH  045%=      5-min Rain = 0
KVA1 092052Z 18006KT 22/10 A3019 RMK A01 T02240096  RH  044%=      5-min Rain = 0
KVA1 092053Z 17006KT 23/10 A3019 RMK A01 T02250095  RH  044%=      5-min Rain = 0
KVA1 092054Z 16007KT 23/10 A3019 RMK A01 T02260095  RH  043%=      5-min Rain = 0
KVA1 092055Z 16005KT 23/10 A3019 RMK A01 T02270095  RH  043%=      5-min Rain = 0
KVA1 092056Z 17005KT 22/09 A3019 RMK A01 T02240094  RH  043%=      5-min Rain = 0
KVA1 092057Z 18004KT 22/09 A3019 RMK A01 T02240094  RH  043%=      5-min Rain = 0
KVA1 092058Z 21002KT 22/09 A3019 RMK A01 T02240094  RH  043%=      5-min Rain = 0
KVA1 092059Z 19002KT 22/09 A3019 RMK A01 T02240094  RH  043%=      5-min Rain = 0
KVA1 092100Z 20002KT 23/09 A3019 RMK A01 T02260094  RH  043%=      5-min Rain = 0
KVA1 092101Z 19005KT 23/10 A3019 RMK A01 T02270095  RH  043%=      5-min Rain = 0
KVA1 092102Z 20006KT 23/10 A3019 RMK A01 T02290096  RH  043%=      5-min Rain = 0
KVA1 092103Z 20007KT 23/09 A3019 RMK A01 T02290094  RH  042%=      5-min Rain = 0
KVA1 092104Z 21004KT 23/09 A3019 RMK A01 T02270093  RH  042%=      5-min Rain = 0
KVA1 092105Z 20003KT 23/09 A3019 RMK A01 T02260093  RH  043%=      5-min Rain = 0
KVA1 092106Z 23003KT 23/09 A3019 RMK A01 T02250094  RH  043%=      5-min Rain = 0
KVA1 092107Z 23005KT 23/09 A3018 RMK A01 T02250094  RH  043%=      5-min Rain = 0
KVA1 092108Z 20004KT 23/09 A3018 RMK A01 T02260094  RH  043%=      5-min Rain = 0
KVA1 092109Z 15004KT 23/09 A3018 RMK A01 T02270094  RH  043%=      5-min Rain = 0
KVA1 092110Z 16005KT 23/10 A3018 RMK A01 T02310096  RH  042%=      5-min Rain = 0
KVA1 092111Z 15004KT 23/10 A3018 RMK A01 T02340096  RH  041%=      5-min Rain = 0
KVA1 092112Z 18004KT 24/10 A3018 RMK A01 T02350096  RH  041%=      5-min Rain = 0
KVA1 092113Z 19007KT 24/09 A3018 RMK A01 T02360094  RH  040%=      5-min Rain = 0
KVA1 092114Z 17005KT 23/09 A3018 RMK A01 T02340092  RH  040%=      5-min Rain = 0
KVA1 092115Z 18004KT 23/09 A3018 RMK A01 T02320092  RH  041%=      5-min Rain = 0
KVA1 092116Z 21003KT 23/09 A3018 RMK A01 T02320092  RH  041%=      5-min Rain = 0
KVA1 092117Z 26006KT 23/09 A3018 RMK A01 T02320092  RH  041%=      5-min Rain = 0
KVA1 092118Z 27005KT 23/09 A3018 RMK A01 T02320092  RH  041%=      5-min Rain = 0
KVA1 092119Z 24005KT 23/09 A3018 RMK A01 T02310091  RH  041%=      5-min Rain = 0
KVA1 092120Z 20008KT 23/09 A3018 RMK A01 T02290092  RH  041%=      5-min Rain = 0
KVA1 092121Z 17006KT 23/09 A3018 RMK A01 T02310093  RH  042%=      5-min Rain = 0
KVA1 092122Z 16006KT 23/09 A3018 RMK A01 T02330093  RH  041%=      5-min Rain = 0
KVA1 092123Z 16006KT 23/09 A3018 RMK A01 T02310093  RH  041%=      5-min Rain = 0
KVA1 092124Z 19005KT 23/09 A3018 RMK A01 T02300093  RH  042%=      5-min Rain = 0
KVA1 092125Z 18005KT 23/09 A3018 RMK A01 T02280093  RH  042%=      5-min Rain = 0
KVA1 092126Z 18004KT 23/09 A3018 RMK A01 T02310093  RH  041%=      5-min Rain = 0
KVA1 092127Z 18005KT 23/09 A3018 RMK A01 T02320094  RH  041%=      5-min Rain = 0
KVA1 092128Z 16006KT 23/09 A3018 RMK A01 T02340094  RH  041%=      5-min Rain = 0
KVA1 092129Z 16005KT 23/09 A3018 RMK A01 T02340093  RH  041%=      5-min Rain = 0
KVA1 092130Z 17007KT 23/09 A3018 RMK A01 T02340093  RH  041%=      5-min Rain = 0
KVA1 092131Z 16007KT 24/09 A3018 RMK A01 T02350094  RH  041%=      5-min Rain = 0
KVA1 092132Z 18004KT 24/09 A3018 RMK A01 T02350093  RH  041%=      5-min Rain = 0
KVA1 092133Z 19002KT 23/09 A3018 RMK A01 T02330093  RH  041%=      5-min Rain = 0
KVA1 092134Z 17005KT 23/09 A3018 RMK A01 T02320092  RH  041%=      5-min Rain = 0
KVA1 092135Z 17005KT 23/09 A3017 RMK A01 T02320092  RH  041%=      5-min Rain = 0
KVA1 092136Z 15005KT 23/09 A3017 RMK A01 T02320093  RH  041%=      5-min Rain = 0
KVA1 092137Z 19006KT 23/09 A3017 RMK A01 T02340094  RH  041%=      5-min Rain = 0
KVA1 092138Z 20006KT 23/09 A3017 RMK A01 T02340090  RH  040%=      5-min Rain = 0
KVA1 092139Z 20005KT 23/09 A3017 RMK A01 T02330090  RH  040%=      5-min Rain = 0
KVA1 092140Z 20006KT 23/09 A3017 RMK A01 T02320090  RH  040%=      5-min Rain = 0
KVA1 092141Z 20005KT 23/09 A3017 RMK A01 T02320090  RH  040%=      5-min Rain = 0
KVA1 092142Z 17005KT 23/09 A3017 RMK A01 T02330091  RH  040%=      5-min Rain = 0
KVA1 092143Z 18005KT 23/09 A3017 RMK A01 T02340091  RH  040%=      5-min Rain = 0
KVA1 092144Z 19005KT 23/09 A3017 RMK A01 T02340090  RH  040%=      5-min Rain = 0
KVA1 092145Z 19005KT 23/09 A3017 RMK A01 T02320090  RH  040%=      5-min Rain = 0
KVA1 092146Z 19006KT 23/09 A3017 RMK A01 T02310091  RH  041%=      5-min Rain = 0
KVA1 092147Z 17007KT 23/09 A3017 RMK A01 T02310091  RH  041%=      5-min Rain = 0
KVA1 092148Z 15006KT 23/09 A3017 RMK A01 T02310091  RH  041%=      5-min Rain = 0
KVA1 092149Z 16006KT 23/09 A3017 RMK A01 T02300091  RH  041%=      5-min Rain = 0
KVA1 092150Z 15006KT 23/09 A3017 RMK A01 T02300091  RH  041%=      5-min Rain = 0
KVA1 092151Z 15004KT 23/09 A3017 RMK A01 T02300091  RH  041%=      5-min Rain = 0
KVA1 092152Z 17006KT 23/09 A3017 RMK A01 T02310091  RH  041%=      5-min Rain = 0
KVA1 092153Z 17008KT 23/09 A3017 RMK A01 T02320091  RH  041%=      5-min Rain = 0
KVA1 092154Z 18007KT 23/09 A3017 RMK A01 T02330091  RH  040%=      5-min Rain = 0
KVA1 092155Z 17007KT 23/09 A3017 RMK A01 T02340091  RH  040%=      5-min Rain = 0
KVA1 092156Z 18007KT 23/09 A3017 RMK A01 T02340091  RH  040%=      5-min Rain = 0
KVA1 092157Z 19009KT 23/09 A3016 RMK A01 T02340090  RH  040%=      5-min Rain = 0
KVA1 092158Z 20007KT 23/09 A3017 RMK A01 T02330091  RH  040%=      5-min Rain = 0
KVA1 092159Z 20008KT 23/09 A3017 RMK A01 T02340091  RH  040%=      5-min Rain = 0
KVA1 092200Z 20007KT 23/09 A3017 RMK A01 T02330090  RH  040%=      5-min Rain = 0
KVA1 092201Z 19004KT 23/09 A3017 RMK A01 T02320090  RH  040%=      5-min Rain = 0
KVA1 092202Z 22006KT 23/09 A3017 RMK A01 T02320090  RH  040%=      5-min Rain = 0
KVA1 092203Z 20006KT 23/09 A3016 RMK A01 T02320090  RH  040%=      5-min Rain = 0
KVA1 092204Z 19007KT 23/09 A3016 RMK A01 T02320090  RH  040%=      5-min Rain = 0
KVA1 092205Z 19005KT 23/09 A3016 RMK A01 T02310090  RH  041%=      5-min Rain = 0
KVA1 092206Z 19004KT 23/09 A3016 RMK A01 T02300089  RH  041%=      5-min Rain = 0
KVA1 092207Z 16003KT 23/09 A3016 RMK A01 T02290090  RH  041%=      5-min Rain = 0
KVA1 092208Z 13002KT 23/09 A3016 RMK A01 T02280089  RH  041%=      5-min Rain = 0
KVA1 092209Z 14004KT 23/09 A3016 RMK A01 T02280090  RH  041%=      5-min Rain = 0
KVA1 092210Z 22003KT 23/09 A3016 RMK A01 T02290090  RH  041%=      5-min Rain = 0
KVA1 092211Z 22002KT 23/09 A3016 RMK A01 T02300090  RH  041%=      5-min Rain = 0
KVA1 092212Z 23007KT 23/09 A3016 RMK A01 T02300091  RH  041%=      5-min Rain = 0
KVA1 092213Z 24007KT 23/09 A3016 RMK A01 T02310093  RH  041%=      5-min Rain = 0
KVA1 092214Z 24005KT 23/09 A3016 RMK A01 T02300093  RH  042%=      5-min Rain = 0
KVA1 092215Z 22004KT 23/09 A3016 RMK A01 T02300093  RH  042%=      5-min Rain = 0
KVA1 092216Z 23005KT 23/09 A3016 RMK A01 T02290094  RH  042%=      5-min Rain = 0
KVA1 092217Z 23004KT 23/09 A3016 RMK A01 T02310094  RH  042%=      5-min Rain = 0
KVA1 092218Z 22005KT 23/09 A3016 RMK A01 T02300094  RH  042%=      5-min Rain = 0
KVA1 092219Z 22006KT 23/09 A3016 RMK A01 T02300094  RH  042%=      5-min Rain = 0
KVA1 092220Z 23006KT 23/09 A3016 RMK A01 T02300094  RH  042%=      5-min Rain = 0
KVA1 092221Z 25008KT 23/10 A3016 RMK A01 T02300095  RH  042%=      5-min Rain = 0
KVA1 092222Z 24009KT 23/10 A3016 RMK A01 T02300096  RH  042%=      5-min Rain = 0
KVA1 092223Z 22009KT 23/10 A3016 RMK A01 T02300097  RH  043%=      5-min Rain = 0
KVA1 092224Z 22010KT 23/10 A3016 RMK A01 T02300097  RH  043%=      5-min Rain = 0
KVA1 092225Z 24007KT 23/10 A3016 RMK A01 T02280097  RH  043%=      5-min Rain = 0
KVA1 092226Z 22008KT 23/10 A3016 RMK A01 T02280097  RH  043%=      5-min Rain = 0
KVA1 092227Z 24008KT 23/10 A3016 RMK A01 T02280098  RH  044%=      5-min Rain = 0
KVA1 092228Z 23010KT 23/10 A3016 RMK A01 T02290099  RH  044%=      5-min Rain = 0
KVA1 092229Z 23008KT 23/10 A3016 RMK A01 T02290098  RH  043%=      5-min Rain = 0
KVA1 092230Z 22008KT 23/10 A3016 RMK A01 T02290098  RH  044%=      5-min Rain = 0
KVA1 092231Z 22009KT 23/10 A3016 RMK A01 T02280099  RH  044%=      5-min Rain = 0
KVA1 092232Z 22006KT 23/10 A3016 RMK A01 T02280100  RH  044%=      5-min Rain = 0
KVA1 092233Z 21009KT 23/10 A3016 RMK A01 T02290101  RH  044%=      5-min Rain = 0
KVA1 092234Z 23007KT 23/10 A3016 RMK A01 T02290100  RH  044%=      5-min Rain = 0
KVA1 092235Z 23008KT 23/10 A3016 RMK A01 T02290100  RH  044%=      5-min Rain = 0
KVA1 092236Z 23009KT 23/10 A3016 RMK A01 T02280101  RH  044%=      5-min Rain = 0
KVA1 092237Z 23009KT 23/10 A3016 RMK A01 T02280101  RH  044%=      5-min Rain = 0
KVA1 092238Z 23009KT 23/10 A3016 RMK A01 T02260101  RH  045%=      5-min Rain = 0
KVA1 092239Z 23007KT 23/10 A3016 RMK A01 T02250101  RH  045%=      5-min Rain = 0
KVA1 092240Z 22007KT 23/10 A3016 RMK A01 T02260102  RH  045%=      5-min Rain = 0
KVA1 092241Z 22006KT 23/10 A3016 RMK A01 T02270101  RH  045%=      5-min Rain = 0
KVA1 092242Z 23005KT 23/10 A3016 RMK A01 T02280102  RH  045%=      5-min Rain = 0
KVA1 092243Z 24008KT 23/10 A3016 RMK A01 T02290103  RH  045%=      5-min Rain = 0
KVA1 092244Z 23007KT 23/10 A3016 RMK A01 T02280103  RH  045%=      5-min Rain = 0
KVA1 092245Z 23006G11KT 23/10 A3016 RMK A01 T02270103  RH  045%=      5-min Rain = 0
KVA1 092246Z 21008KT 23/10 A3016 RMK A01 T02270103  RH  045%=      5-min Rain = 0
KVA1 092247Z 20009KT 23/10 A3016 RMK A01 T02280103  RH  045%=      5-min Rain = 0
KVA1 092248Z 21009KT 23/10 A3016 RMK A01 T02270103  RH  045%=      5-min Rain = 0
KVA1 092249Z 20008KT 23/10 A3016 RMK A01 T02260103  RH  046%=      5-min Rain = 0
KVA1 092250Z 20008KT 22/10 A3016 RMK A01 T02240103  RH  046%=      5-min Rain = 0
KVA1 092251Z 21006KT 22/10 A3016 RMK A01 T02240103  RH  046%=      5-min Rain = 0
KVA1 092252Z 21006KT 22/10 A3016 RMK A01 T02230103  RH  047%=      5-min Rain = 0
KVA1 092253Z 22006KT 22/10 A3016 RMK A01 T02230104  RH  047%=      5-min Rain = 0
KVA1 092254Z 21008KT 22/11 A3016 RMK A01 T02230105  RH  047%=      5-min Rain = 0
KVA1 092255Z 21008KT 22/11 A3016 RMK A01 T02240105  RH  047%=      5-min Rain = 0
KVA1 092256Z 22007KT 22/11 A3016 RMK A01 T02230106  RH  047%=      5-min Rain = 0
KVA1 092257Z 21007KT 22/11 A3016 RMK A01 T02230106  RH  047%=      5-min Rain = 0
KVA1 092258Z 22006KT 22/11 A3016 RMK A01 T02230106  RH  047%=      5-min Rain = 0
KVA1 092259Z 22010KT 22/11 A3016 RMK A01 T02240106  RH  047%=      5-min Rain = 0
KVA1 092300Z 22010KT 22/11 A3016 RMK A01 T02240106  RH  047%=      5-min Rain = 0
KVA1 092301Z 22010KT 22/11 A3016 RMK A01 T02230105  RH  047%=      5-min Rain = 0
KVA1 092302Z 22009KT 22/11 A3016 RMK A01 T02230105  RH  047%=      5-min Rain = 0
KVA1 092303Z 22007KT 22/11 A3016 RMK A01 T02220105  RH  047%=      5-min Rain = 0
KVA1 092304Z 22005KT 22/11 A3016 RMK A01 T02210105  RH  048%=      5-min Rain = 0
KVA1 092305Z 21007KT 22/11 A3016 RMK A01 T02210105  RH  048%=      5-min Rain = 0
KVA1 092306Z 21010KT 22/11 A3016 RMK A01 T02210105  RH  048%=      5-min Rain = 0
KVA1 092307Z 22008KT 22/11 A3016 RMK A01 T02210106  RH  048%=      5-min Rain = 0
KVA1 092308Z 22008KT 22/11 A3016 RMK A01 T02200105  RH  048%=      5-min Rain = 0
KVA1 092309Z 21008KT 22/11 A3016 RMK A01 T02200105  RH  048%=      5-min Rain = 0
KVA1 092310Z 22009KT 22/11 A3016 RMK A01 T02190106  RH  048%=      5-min Rain = 0
KVA1 092311Z 22009KT 22/11 A3016 RMK A01 T02190106  RH  048%=      5-min Rain = 0
KVA1 092312Z 23008KT 22/11 A3016 RMK A01 T02190105  RH  048%=      5-min Rain = 0
KVA1 092313Z 23006KT 22/11 A3016 RMK A01 T02190105  RH  048%=      5-min Rain = 0
KVA1 092314Z 22009KT 22/11 A3016 RMK A01 T02190106  RH  049%=      5-min Rain = 0
KVA1 092315Z 22008KT 22/11 A3016 RMK A01 T02180107  RH  049%=      5-min Rain = 0
KVA1 092316Z 21007KT 22/11 A3016 RMK A01 T02180107  RH  049%=      5-min Rain = 0
KVA1 092317Z 21008KT 22/11 A3016 RMK A01 T02180107  RH  049%=      5-min Rain = 0
KVA1 092318Z 21010KT 22/11 A3016 RMK A01 T02180106  RH  049%=      5-min Rain = 0
KVA1 092319Z 22009KT 22/11 A3016 RMK A01 T02180106  RH  049%=      5-min Rain = 0
KVA1 092320Z 22008KT 22/11 A3016 RMK A01 T02170105  RH  049%=      5-min Rain = 0
KVA1 092321Z 22008KT 22/11 A3016 RMK A01 T02170105  RH  049%=      5-min Rain = 0
KVA1 092322Z 22009KT 22/11 A3016 RMK A01 T02170105  RH  049%=      5-min Rain = 0
KVA1 092323Z 22007KT 22/11 A3016 RMK A01 T02170105  RH  049%=      5-min Rain = 0
KVA1 092324Z 22008KT 22/11 A3016 RMK A01 T02170105  RH  049%=      5-min Rain = 0
KVA1 092325Z 22009KT 22/11 A3016 RMK A01 T02170105  RH  049%=      5-min Rain = 0
KVA1 092326Z 22009KT 22/11 A3016 RMK A01 T02170105  RH  049%=      5-min Rain = 0
KVA1 092327Z 22007KT 22/11 A3016 RMK A01 T02170105  RH  049%=      5-min Rain = 0
KVA1 092328Z 22008KT 22/11 A3016 RMK A01 T02170105  RH  049%=      5-min Rain = 0
KVA1 092329Z 22007KT 22/11 A3016 RMK A01 T02170105  RH  049%=      5-min Rain = 0
KVA1 092330Z 22009KT 22/11 A3016 RMK A01 T02170106  RH  049%=      5-min Rain = 0
KVA1 092331Z 21009KT 22/11 A3016 RMK A01 T02170106  RH  049%=      5-min Rain = 0
KVA1 092332Z 22006KT 22/11 A3016 RMK A01 T02170105  RH  049%=      5-min Rain = 0
KVA1 092333Z 21008KT 22/11 A3016 RMK A01 T02170106  RH  049%=      5-min Rain = 0
KVA1 092334Z 21008KT 22/11 A3016 RMK A01 T02170105  RH  049%=      5-min Rain = 0
KVA1 092335Z 21008KT 22/11 A3016 RMK A01 T02170105  RH  049%=      5-min Rain = 0
KVA1 092336Z 22007KT 22/11 A3016 RMK A01 T02160105  RH  049%=      5-min Rain = 0
KVA1 092337Z 22005KT 22/11 A3016 RMK A01 T02160105  RH  049%=      5-min Rain = 0
KVA1 092338Z 22007KT 22/11 A3016 RMK A01 T02160105  RH  049%=      5-min Rain = 0
KVA1 092339Z 21007KT 22/11 A3016 RMK A01 T02150105  RH  049%=      5-min Rain = 0
KVA1 092340Z 21005KT 21/11 A3016 RMK A01 T02140105  RH  050%=      5-min Rain = 0
KVA1 092341Z 21006KT 21/11 A3016 RMK A01 T02140105  RH  050%=      5-min Rain = 0
KVA1 092342Z 22006KT 21/11 A3016 RMK A01 T02140105  RH  050%=      5-min Rain = 0
KVA1 092343Z 22005KT 21/11 A3016 RMK A01 T02140106  RH  050%=      5-min Rain = 0
KVA1 092344Z 21004KT 21/11 A3016 RMK A01 T02140105  RH  050%=      5-min Rain = 0
KVA1 092345Z 22005KT 21/11 A3016 RMK A01 T02130106  RH  050%=      5-min Rain = 0
KVA1 092346Z 21005KT 21/11 A3016 RMK A01 T02130106  RH  050%=      5-min Rain = 0
KVA1 092347Z 22005KT 21/11 A3016 RMK A01 T02130106  RH  050%=      5-min Rain = 0
KVA1 092348Z 22005KT 21/11 A3016 RMK A01 T02130106  RH  051%=      5-min Rain = 0
KVA1 092349Z 21006KT 21/11 A3016 RMK A01 T02130106  RH  051%=      5-min Rain = 0
KVA1 092350Z 21005KT 21/11 A3016 RMK A01 T02120106  RH  051%=      5-min Rain = 0
KVA1 092351Z 21005KT 21/11 A3016 RMK A01 T02120106  RH  051%=      5-min Rain = 0
KVA1 092352Z 21005KT 21/11 A3016 RMK A01 T02120106  RH  051%=      5-min Rain = 0
KVA1 092353Z 22006KT 21/11 A3016 RMK A01 T02120106  RH  051%=      5-min Rain = 0
KVA1 092354Z 21006KT 21/11 A3016 RMK A01 T02110106  RH  051%=      5-min Rain = 0
KVA1 092355Z 21006KT 21/11 A3016 RMK A01 T02110106  RH  051%=      5-min Rain = 0
KVA1 092356Z 21006KT 21/11 A3016 RMK A01 T02110106  RH  051%=      5-min Rain = 0
KVA1 092357Z 22005KT 21/11 A3016 RMK A01 T02110106  RH  051%=      5-min Rain = 0
KVA1 092358Z 22004KT 21/11 A3016 RMK A01 T02110106  RH  051%=      5-min Rain = 0
KVA1 092359Z 22005KT 21/11 A3016 RMK A01 T02100106  RH  051%=      5-min Rain = 0
KVA1 100000Z 22006KT 21/11 A3016 RMK A01 T02090106  RH  051%=      5-min Rain = 0
KVA1 100001Z 22006KT 21/11 A3016 RMK A01 T02100106  RH  052%=      5-min Rain = 0
KVA1 100002Z 21005KT 21/11 A3016 RMK A01 T02090106  RH  052%=      5-min Rain = 0
KVA1 100003Z 21005KT 21/11 A3016 RMK A01 T02090106  RH  052%=      5-min Rain = 0
KVA1 100004Z 22004KT 21/11 A3016 RMK A01 T02080106  RH  052%=      5-min Rain = 0
KVA1 100005Z 21004KT 21/11 A3016 RMK A01 T02070105  RH  052%=      5-min Rain = 0
KVA1 100006Z 21004KT 21/11 A3016 RMK A01 T02070105  RH  052%=      5-min Rain = 0
KVA1 100007Z 21004KT 21/11 A3016 RMK A01 T02070105  RH  052%=      5-min Rain = 0
KVA1 100008Z 21004KT 21/11 A3016 RMK A01 T02070106  RH  052%=      5-min Rain = 0
KVA1 100009Z 21004KT 21/11 A3016 RMK A01 T02060105  RH  052%=      5-min Rain = 0
KVA1 100010Z 22005KT 21/11 A3016 RMK A01 T02060105  RH  053%=      5-min Rain = 0
KVA1 100011Z 21004KT 21/11 A3016 RMK A01 T02050105  RH  053%=      5-min Rain = 0
KVA1 100012Z 21005KT 21/11 A3016 RMK A01 T02050105  RH  053%=      5-min Rain = 0
KVA1 100013Z 21004KT 20/11 A3016 RMK A01 T02040105  RH  053%=      5-min Rain = 0
KVA1 100014Z 21004KT 20/11 A3016 RMK A01 T02040105  RH  053%=      5-min Rain = 0
KVA1 100015Z 21004KT 20/11 A3016 RMK A01 T02040105  RH  053%=      5-min Rain = 0
KVA1 100016Z 21004KT 20/11 A3016 RMK A01 T02040106  RH  053%=      5-min Rain = 0
KVA1 100017Z 21004KT 20/11 A3016 RMK A01 T02030106  RH  053%=      5-min Rain = 0
KVA1 100018Z 21004KT 20/11 A3016 RMK A01 T02030105  RH  053%=      5-min Rain = 0
KVA1 100019Z 21004KT 20/11 A3016 RMK A01 T02020105  RH  054%=      5-min Rain = 0
KVA1 100020Z 22004KT 20/11 A3016 RMK A01 T02020106  RH  054%=      5-min Rain = 0
KVA1 100021Z 21004KT 20/11 A3016 RMK A01 T02020106  RH  054%=      5-min Rain = 0
KVA1 100022Z 22005KT 20/11 A3016 RMK A01 T02010106  RH  054%=      5-min Rain = 0
KVA1 100023Z 21004KT 20/11 A3016 RMK A01 T02010106  RH  054%=      5-min Rain = 0
KVA1 100024Z 21004KT 20/11 A3016 RMK A01 T02010106  RH  054%=      5-min Rain = 0
KVA1 100025Z 21004KT 20/11 A3016 RMK A01 T02010106  RH  054%=      5-min Rain = 0
KVA1 100026Z 21004KT 20/11 A3016 RMK A01 T02010106  RH  054%=      5-min Rain = 0
KVA1 100027Z 21003KT 20/11 A3016 RMK A01 T02010106  RH  054%=      5-min Rain = 0
KVA1 100028Z 21004KT 20/11 A3016 RMK A01 T02000106  RH  055%=      5-min Rain = 0
KVA1 100029Z 22004KT 20/11 A3016 RMK A01 T02000106  RH  055%=      5-min Rain = 0
KVA1 100030Z 21004KT 20/11 A3016 RMK A01 T02000106  RH  055%=      5-min Rain = 0
KVA1 100031Z 22004KT 20/11 A3016 RMK A01 T02000106  RH  055%=      5-min Rain = 0
KVA1 100032Z 21004KT 20/11 A3016 RMK A01 T01990106  RH  055%=      5-min Rain = 0
KVA1 100033Z 21004KT 20/11 A3016 RMK A01 T01990106  RH  055%=      5-min Rain = 0
KVA1 100034Z 21004KT 20/11 A3016 RMK A01 T01980106  RH  055%=      5-min Rain = 0
KVA1 100035Z 21004KT 20/11 A3016 RMK A01 T01980106  RH  055%=      5-min Rain = 0
KVA1 100036Z 22004KT 20/11 A3016 RMK A01 T01980106  RH  055%=      5-min Rain = 0
KVA1 100037Z 22005KT 20/11 A3016 RMK A01 T01970106  RH  056%=      5-min Rain = 0
KVA1 100038Z 22005KT 20/11 A3016 RMK A01 T01970106  RH  056%=      5-min Rain = 0
KVA1 100039Z 22005KT 20/11 A3016 RMK A01 T01960106  RH  056%=      5-min Rain = 0
KVA1 100040Z 22005KT 20/11 A3016 RMK A01 T01960106  RH  056%=      5-min Rain = 0
KVA1 100041Z 22005KT 20/11 A3016 RMK A01 T01950106  RH  056%=      5-min Rain = 0
KVA1 100042Z 22005KT 20/11 A3016 RMK A01 T01950106  RH  056%=      5-min Rain = 0
KVA1 100043Z 22005KT 19/11 A3016 RMK A01 T01940106  RH  057%=      5-min Rain = 0
KVA1 100044Z 22005KT 19/11 A3016 RMK A01 T01940106  RH  057%=      5-min Rain = 0
KVA1 100045Z 22005KT 19/11 A3016 RMK A01 T01930106  RH  057%=      5-min Rain = 0
KVA1 100046Z 21005KT 19/11 A3016 RMK A01 T01930106  RH  057%=      5-min Rain = 0
KVA1 100047Z 21005KT 19/11 A3016 RMK A01 T01930106  RH  057%=      5-min Rain = 0
KVA1 100048Z 22005KT 19/11 A3016 RMK A01 T01930106  RH  057%=      5-min Rain = 0
KVA1 100049Z 21004KT 19/11 A3016 RMK A01 T01930106  RH  057%=      5-min Rain = 0
KVA1 100050Z 22005KT 19/11 A3016 RMK A01 T01930106  RH  057%=      5-min Rain = 0
KVA1 100051Z 22004KT 19/11 A3016 RMK A01 T01920106  RH  057%=      5-min Rain = 0
KVA1 100052Z 22004KT 19/11 A3016 RMK A01 T01920106  RH  057%=      5-min Rain = 0
KVA1 100053Z 22004KT 19/11 A3016 RMK A01 T01920106  RH  057%=      5-min Rain = 0
KVA1 100054Z 22004KT 19/11 A3016 RMK A01 T01920106  RH  057%=      5-min Rain = 0
KVA1 100055Z 22004KT 19/11 A3016 RMK A01 T01920107  RH  058%=      5-min Rain = 0
KVA1 100056Z 21004KT 19/11 A3016 RMK A01 T01920106  RH  058%=      5-min Rain = 0
KVA1 100057Z 22005KT 19/11 A3016 RMK A01 T01910106  RH  058%=      5-min Rain = 0
KVA1 100058Z 22004KT 19/11 A3016 RMK A01 T01910106  RH  058%=      5-min Rain = 0
KVA1 100059Z 22004KT 19/11 A3016 RMK A01 T01910106  RH  058%=      5-min Rain = 0
KVA1 100100Z 22005KT 19/11 A3016 RMK A01 T01910106  RH  058%=      5-min Rain = 0
KVA1 100101Z 22005KT 19/11 A3016 RMK A01 T01910106  RH  058%=      5-min Rain = 0
KVA1 100102Z 22005KT 19/11 A3016 RMK A01 T01900106  RH  058%=      5-min Rain = 0
KVA1 100103Z 22005KT 19/11 A3016 RMK A01 T01900106  RH  058%=      5-min Rain = 0
KVA1 100104Z 21005KT 19/11 A3016 RMK A01 T01900106  RH  058%=      5-min Rain = 0
KVA1 100105Z 21005KT 19/11 A3016 RMK A01 T01890106  RH  058%=      5-min Rain = 0
KVA1 100106Z 21005KT 19/11 A3017 RMK A01 T01890106  RH  058%=      5-min Rain = 0
KVA1 100107Z 21005KT 19/11 A3016 RMK A01 T01890106  RH  059%=      5-min Rain = 0
KVA1 100108Z 21005KT 19/11 A3016 RMK A01 T01890106  RH  059%=      5-min Rain = 0
KVA1 100109Z 21005KT 19/11 A3016 RMK A01 T01890106  RH  059%=      5-min Rain = 0
KVA1 100110Z 21004KT 19/11 A3016 RMK A01 T01880106  RH  059%=      5-min Rain = 0
KVA1 100111Z 21004KT 19/11 A3016 RMK A01 T01880106  RH  059%=      5-min Rain = 0
KVA1 100112Z 21005KT 19/11 A3016 RMK A01 T01880106  RH  059%=      5-min Rain = 0
KVA1 100113Z 21004KT 19/11 A3016 RMK A01 T01880106  RH  059%=      5-min Rain = 0
KVA1 100114Z 21005KT 19/11 A3016 RMK A01 T01870106  RH  059%=      5-min Rain = 0
KVA1 100115Z 21005KT 19/11 A3016 RMK A01 T01870107  RH  059%=      5-min Rain = 0
KVA1 100116Z 21004KT 19/11 A3016 RMK A01 T01870106  RH  059%=      5-min Rain = 0
KVA1 100117Z 21005KT 19/11 A3017 RMK A01 T01870106  RH  059%=      5-min Rain = 0
KVA1 100118Z 22004KT 19/11 A3017 RMK A01 T01860106  RH  059%=      5-min Rain = 0
KVA1 100119Z 22005KT 19/11 A3017 RMK A01 T01860106  RH  060%=      5-min Rain = 0
KVA1 100120Z 22005KT 19/11 A3017 RMK A01 T01860106  RH  060%=      5-min Rain = 0
KVA1 100121Z 22005KT 19/11 A3017 RMK A01 T01860106  RH  060%=      5-min Rain = 0
KVA1 100122Z 22005KT 19/11 A3017 RMK A01 T01860106  RH  060%=      5-min Rain = 0
KVA1 100123Z 22005KT 19/11 A3017 RMK A01 T01860106  RH  060%=      5-min Rain = 0
KVA1 100124Z 22005KT 19/11 A3017 RMK A01 T01860107  RH  060%=      5-min Rain = 0
KVA1 100125Z 22004KT 19/11 A3016 RMK A01 T01850106  RH  060%=      5-min Rain = 0
KVA1 100126Z 22005KT 19/11 A3016 RMK A01 T01850107  RH  060%=      5-min Rain = 0
KVA1 100127Z 22004KT 19/11 A3016 RMK A01 T01850106  RH  060%=      5-min Rain = 0
KVA1 100128Z 22004KT 18/11 A3016 RMK A01 T01840106  RH  060%=      5-min Rain = 0
KVA1 100129Z 22004KT 18/11 A3016 RMK A01 T01840106  RH  060%=      5-min Rain = 0
KVA1 100130Z 22004KT 18/11 A3017 RMK A01 T01840106  RH  060%=      5-min Rain = 0
KVA1 100131Z 22005KT 18/11 A3017 RMK A01 T01840106  RH  061%=      5-min Rain = 0
KVA1 100132Z 22005KT 18/11 A3017 RMK A01 T01840107  RH  061%=      5-min Rain = 0
KVA1 100133Z 23005KT 18/11 A3017 RMK A01 T01830106  RH  061%=      5-min Rain = 0
KVA1 100134Z 23005KT 18/11 A3017 RMK A01 T01830106  RH  061%=      5-min Rain = 0
KVA1 100135Z 23005KT 18/11 A3017 RMK A01 T01830106  RH  061%=      5-min Rain = 0
KVA1 100136Z 23005KT 18/11 A3017 RMK A01 T01820106  RH  061%=      5-min Rain = 0
KVA1 100137Z 23005KT 18/11 A3017 RMK A01 T01820106  RH  061%=      5-min Rain = 0
KVA1 100138Z 23004KT 18/11 A3017 RMK A01 T01820106  RH  061%=      5-min Rain = 0
KVA1 100139Z 23005KT 18/11 A3017 RMK A01 T01820107  RH  061%=      5-min Rain = 0
KVA1 100140Z 23005KT 18/11 A3017 RMK A01 T01810106  RH  061%=      5-min Rain = 0
KVA1 100141Z 22004KT 18/11 A3017 RMK A01 T01810106  RH  061%=      5-min Rain = 0
KVA1 100142Z 22005KT 18/11 A3017 RMK A01 T01820106  RH  061%=      5-min Rain = 0
KVA1 100143Z 22005KT 18/11 A3017 RMK A01 T01810106  RH  061%=      5-min Rain = 0
KVA1 100144Z 23004KT 18/11 A3017 RMK A01 T01820106  RH  061%=      5-min Rain = 0
KVA1 100145Z 23005KT 18/11 A3017 RMK A01 T01810106  RH  061%=      5-min Rain = 0
KVA1 100146Z 23004KT 18/11 A3017 RMK A01 T01810106  RH  062%=      5-min Rain = 0
KVA1 100147Z 23004KT 18/11 A3017 RMK A01 T01810106  RH  062%=      5-min Rain = 0
KVA1 100148Z 23004KT 18/11 A3017 RMK A01 T01810107  RH  062%=      5-min Rain = 0
KVA1 100149Z 23004KT 18/11 A3017 RMK A01 T01810107  RH  062%=      5-min Rain = 0
KVA1 100150Z 22004KT 18/11 A3017 RMK A01 T01800106  RH  062%=      5-min Rain = 0
KVA1 100151Z 22004KT 18/11 A3017 RMK A01 T01810107  RH  062%=      5-min Rain = 0
KVA1 100152Z 22004KT 18/11 A3017 RMK A01 T01810107  RH  062%=      5-min Rain = 0
KVA1 100153Z 23004KT 18/11 A3017 RMK A01 T01810107  RH  062%=      5-min Rain = 0
KVA1 100154Z 23004KT 18/11 A3017 RMK A01 T01800107  RH  062%=      5-min Rain = 0
KVA1 100155Z 23004KT 18/11 A3017 RMK A01 T01800107  RH  062%=      5-min Rain = 0
KVA1 100156Z 23003KT 18/11 A3017 RMK A01 T01800106  RH  062%=      5-min Rain = 0
KVA1 100157Z 23004KT 18/11 A3017 RMK A01 T01800107  RH  062%=      5-min Rain = 0
KVA1 100158Z 22003KT 18/11 A3017 RMK A01 T01790107  RH  062%=      5-min Rain = 0
KVA1 100159Z 23004KT 18/11 A3017 RMK A01 T01790106  RH  063%=      5-min Rain = 0
KVA1 100200Z 22004KT 18/11 A3017 RMK A01 T01790107  RH  063%=      5-min Rain = 0
KVA1 100201Z 22003KT 18/11 A3017 RMK A01 T01780107  RH  063%=      5-min Rain = 0
KVA1 100202Z 22004KT 18/11 A3017 RMK A01 T01780106  RH  063%=      5-min Rain = 0
KVA1 100203Z 22004KT 18/11 A3017 RMK A01 T01770106  RH  063%=      5-min Rain = 0
KVA1 100204Z 22004KT 18/11 A3017 RMK A01 T01770106  RH  063%=      5-min Rain = 0
KVA1 100205Z 23004KT 18/11 A3017 RMK A01 T01770106  RH  063%=      5-min Rain = 0
KVA1 100206Z 23004KT 18/11 A3017 RMK A01 T01770106  RH  063%=      5-min Rain = 0
KVA1 100207Z 23004KT 18/11 A3017 RMK A01 T01760106  RH  063%=      5-min Rain = 0
KVA1 100208Z 23004KT 18/11 A3017 RMK A01 T01760106  RH  063%=      5-min Rain = 0
KVA1 100209Z 23004KT 18/11 A3017 RMK A01 T01750105  RH  063%=      5-min Rain = 0
KVA1 100210Z 24004KT 18/11 A3017 RMK A01 T01750105  RH  064%=      5-min Rain = 0
KVA1 100211Z 24004KT 18/11 A3017 RMK A01 T01750105  RH  064%=      5-min Rain = 0
KVA1 100212Z 24004KT 17/11 A3017 RMK A01 T01740105  RH  064%=      5-min Rain = 0
KVA1 100213Z 24004KT 17/11 A3017 RMK A01 T01740105  RH  064%=      5-min Rain = 0
KVA1 100214Z 25004KT 17/11 A3017 RMK A01 T01730105  RH  064%=      5-min Rain = 0
KVA1 100215Z 25005KT 17/11 A3017 RMK A01 T01730105  RH  064%=      5-min Rain = 0
KVA1 100216Z 24005KT 17/10 A3017 RMK A01 T01720104  RH  064%=      5-min Rain = 0
KVA1 100217Z 24005KT 17/10 A3017 RMK A01 T01720104  RH  064%=      5-min Rain = 0
KVA1 100218Z 24005KT 17/11 A3017 RMK A01 T01730105  RH  064%=      5-min Rain = 0
KVA1 100219Z 24005KT 17/11 A3017 RMK A01 T01730105  RH  064%=      5-min Rain = 0
KVA1 100220Z 24005KT 17/11 A3017 RMK A01 T01730105  RH  064%=      5-min Rain = 0
KVA1 100221Z 24006KT 17/11 A3017 RMK A01 T01730105  RH  064%=      5-min Rain = 0
KVA1 100222Z 24006KT 17/11 A3017 RMK A01 T01740105  RH  064%=      5-min Rain = 0
KVA1 100223Z 24005KT 17/11 A3017 RMK A01 T01740105  RH  064%=      5-min Rain = 0
KVA1 100224Z 24006KT 17/11 A3017 RMK A01 T01740105  RH  064%=      5-min Rain = 0
KVA1 100225Z 24005KT 18/11 A3017 RMK A01 T01750105  RH  064%=      5-min Rain = 0
KVA1 100226Z 24006KT 18/11 A3017 RMK A01 T01750105  RH  064%=      5-min Rain = 0
KVA1 100227Z 24005KT 18/11 A3017 RMK A01 T01760106  RH  064%=      5-min Rain = 0
KVA1 100228Z 24005KT 18/11 A3017 RMK A01 T01760106  RH  063%=      5-min Rain = 0
KVA1 100229Z 24005KT 18/11 A3017 RMK A01 T01760106  RH  063%=      5-min Rain = 0
KVA1 100230Z 24005KT 18/11 A3017 RMK A01 T01760106  RH  063%=      5-min Rain = 0
KVA1 100231Z 24005KT 18/11 A3017 RMK A01 T01760106  RH  064%=      5-min Rain = 0
KVA1 100232Z 24005KT 18/11 A3017 RMK A01 T01760106  RH  064%=      5-min Rain = 0
KVA1 100233Z 24005KT 18/11 A3017 RMK A01 T01760107  RH  064%=      5-min Rain = 0
KVA1 100234Z 24005KT 18/11 A3017 RMK A01 T01760107  RH  064%=      5-min Rain = 0
KVA1 100235Z 24005KT 18/11 A3017 RMK A01 T01760107  RH  064%=      5-min Rain = 0
KVA1 100236Z 24005KT 18/11 A3017 RMK A01 T01760107  RH  064%=      5-min Rain = 0
KVA1 100237Z 24005KT 18/11 A3017 RMK A01 T01760107  RH  064%=      5-min Rain = 0
KVA1 100238Z 23005KT 18/11 A3017 RMK A01 T01750106  RH  064%=      5-min Rain = 0
KVA1 100239Z 24005KT 18/11 A3017 RMK A01 T01750106  RH  064%=      5-min Rain = 0
KVA1 100240Z 24004KT 17/11 A3017 RMK A01 T01740106  RH  064%=      5-min Rain = 0
KVA1 100241Z 23005KT 17/11 A3017 RMK A01 T01740106  RH  064%=      5-min Rain = 0
KVA1 100242Z 23005KT 17/11 A3017 RMK A01 T01740106  RH  065%=      5-min Rain = 0
KVA1 100243Z 22005KT 17/11 A3017 RMK A01 T01730106  RH  065%=      5-min Rain = 0
KVA1 100244Z 21004KT 17/11 A3017 RMK A01 T01740106  RH  065%=      5-min Rain = 0
KVA1 100245Z 18004KT 17/11 A3017 RMK A01 T01730106  RH  065%=      5-min Rain = 0
KVA1 100246Z 16003KT 17/11 A3017 RMK A01 T01720105  RH  065%=      5-min Rain = 0
KVA1 100247Z 16003KT 17/10 A3017 RMK A01 T01710104  RH  065%=      5-min Rain = 0
KVA1 100248Z 17004KT 17/10 A3017 RMK A01 T01700104  RH  065%=      5-min Rain = 0
KVA1 100249Z 18004KT 17/10 A3017 RMK A01 T01690103  RH  065%=      5-min Rain = 0
KVA1 100250Z 18004KT 17/10 A3017 RMK A01 T01680103  RH  066%=      5-min Rain = 0
KVA1 100251Z 17003KT 17/10 A3017 RMK A01 T01670103  RH  066%=      5-min Rain = 0
KVA1 100252Z 17003KT 17/10 A3017 RMK A01 T01660103  RH  066%=      5-min Rain = 0
KVA1 100253Z 18003KT 17/10 A3017 RMK A01 T01650102  RH  066%=      5-min Rain = 0
KVA1 100254Z 18003KT 16/10 A3017 RMK A01 T01640102  RH  067%=      5-min Rain = 0
KVA1 100255Z 18003KT 16/10 A3017 RMK A01 T01630102  RH  067%=      5-min Rain = 0
KVA1 100256Z 18003KT 16/10 A3017 RMK A01 T01620102  RH  067%=      5-min Rain = 0
KVA1 100257Z 18004KT 16/10 A3017 RMK A01 T01610102  RH  068%=      5-min Rain = 0
KVA1 100258Z 19004KT 16/10 A3017 RMK A01 T01600101  RH  068%=      5-min Rain = 0
KVA1 100259Z 20004KT 16/10 A3017 RMK A01 T01600102  RH  069%=      5-min Rain = 0
KVA1 100300Z 21004KT 16/10 A3017 RMK A01 T01590102  RH  069%=      5-min Rain = 0
KVA1 100301Z 21004KT 16/10 A3017 RMK A01 T01590102  RH  069%=      5-min Rain = 0
KVA1 100302Z 20004KT 16/10 A3017 RMK A01 T01590102  RH  069%=      5-min Rain = 0
KVA1 100303Z 20003KT 16/10 A3017 RMK A01 T01590102  RH  069%=      5-min Rain = 0
KVA1 100304Z 20003KT 16/10 A3017 RMK A01 T01590102  RH  069%=      5-min Rain = 0
KVA1 100305Z 19003KT 16/10 A3017 RMK A01 T01590102  RH  069%=      5-min Rain = 0
KVA1 100306Z 19004KT 16/10 A3017 RMK A01 T01580101  RH  069%=      5-min Rain = 0
KVA1 100307Z 19004KT 16/10 A3017 RMK A01 T01580101  RH  069%=      5-min Rain = 0
KVA1 100308Z 19004KT 16/10 A3017 RMK A01 T01570102  RH  069%=      5-min Rain = 0
KVA1 100309Z 19004KT 16/10 A3017 RMK A01 T01570101  RH  070%=      5-min Rain = 0
KVA1 100310Z 20004KT 16/10 A3017 RMK A01 T01570102  RH  070%=      5-min Rain = 0
KVA1 100311Z 20004KT 16/10 A3017 RMK A01 T01570102  RH  070%=      5-min Rain = 0
KVA1 100312Z 19004KT 16/10 A3017 RMK A01 T01570102  RH  070%=      5-min Rain = 0
KVA1 100313Z 18004KT 16/10 A3017 RMK A01 T01560102  RH  070%=      5-min Rain = 0
KVA1 100314Z 17004KT 16/10 A3018 RMK A01 T01560102  RH  070%=      5-min Rain = 0
KVA1 100315Z 18004KT 16/10 A3018 RMK A01 T01560101  RH  070%=      5-min Rain = 0
KVA1 100316Z 18004KT 16/10 A3018 RMK A01 T01550101  RH  070%=      5-min Rain = 0
KVA1 100317Z 19003KT 16/10 A3017 RMK A01 T01550101  RH  070%=      5-min Rain = 0
KVA1 100318Z 18003KT 15/10 A3017 RMK A01 T01540101  RH  070%=      5-min Rain = 0
KVA1 100319Z 18003KT 15/10 A3017 RMK A01 T01540101  RH  071%=      5-min Rain = 0
KVA1 100320Z 17003KT 15/10 A3017 RMK A01 T01540101  RH  071%=      5-min Rain = 0
KVA1 100321Z 17003KT 15/10 A3017 RMK A01 T01540102  RH  071%=      5-min Rain = 0
KVA1 100322Z 17004KT 15/10 A3017 RMK A01 T01540101  RH  071%=      5-min Rain = 0
KVA1 100323Z 17004KT 15/10 A3017 RMK A01 T01530101  RH  071%=      5-min Rain = 0
KVA1 100324Z 17003KT 15/10 A3017 RMK A01 T01530101  RH  071%=      5-min Rain = 0
KVA1 100325Z 17004KT 15/10 A3017 RMK A01 T01530101  RH  071%=      5-min Rain = 0
KVA1 100326Z 17004KT 15/10 A3017 RMK A01 T01530101  RH  071%=      5-min Rain = 0
KVA1 100327Z 17004KT 15/10 A3017 RMK A01 T01520102  RH  072%=      5-min Rain = 0
KVA1 100328Z 17004KT 15/10 A3017 RMK A01 T01520102  RH  072%=      5-min Rain = 0
KVA1 100329Z 16004KT 15/10 A3017 RMK A01 T01520102  RH  072%=      5-min Rain = 0
KVA1 100330Z 16004KT 15/10 A3017 RMK A01 T01520102  RH  072%=      5-min Rain = 0
KVA1 100331Z 16005KT 15/10 A3017 RMK A01 T01530102  RH  072%=      5-min Rain = 0
KVA1 100332Z 16005KT 15/10 A3017 RMK A01 T01530102  RH  072%=      5-min Rain = 0
KVA1 100333Z 16005KT 15/10 A3017 RMK A01 T01530103  RH  072%=      5-min Rain = 0
KVA1 100334Z 16005KT 15/10 A3017 RMK A01 T01530102  RH  072%=      5-min Rain = 0
KVA1 100335Z 16005KT 15/10 A3018 RMK A01 T01530103  RH  072%=      5-min Rain = 0
KVA1 100336Z 16005KT 15/10 A3018 RMK A01 T01530103  RH  072%=      5-min Rain = 0
KVA1 100337Z 16004KT 15/10 A3018 RMK A01 T01540103  RH  072%=      5-min Rain = 0
KVA1 100338Z 15005KT 15/10 A3018 RMK A01 T01540103  RH  072%=      5-min Rain = 0
KVA1 100339Z 15005KT 15/10 A3018 RMK A01 T01540103  RH  072%=      5-min Rain = 0
KVA1 100340Z 15006KT 15/10 A3018 RMK A01 T01540103  RH  072%=      5-min Rain = 0
KVA1 100341Z 16006KT 15/10 A3018 RMK A01 T01540103  RH  072%=      5-min Rain = 0
KVA1 100342Z 16006KT 15/10 A3018 RMK A01 T01540103  RH  071%=      5-min Rain = 0
KVA1 100343Z 16006KT 15/10 A3018 RMK A01 T01540103  RH  071%=      5-min Rain = 0
KVA1 100344Z 16006KT 16/10 A3018 RMK A01 T01550103  RH  071%=      5-min Rain = 0
KVA1 100345Z 17005KT 16/10 A3018 RMK A01 T01560103  RH  071%=      5-min Rain = 0
KVA1 100346Z 16005KT 16/10 A3018 RMK A01 T01560102  RH  070%=      5-min Rain = 0
KVA1 100347Z 16006KT 16/10 A3018 RMK A01 T01570102  RH  070%=      5-min Rain = 0
KVA1 100348Z 16005KT 16/10 A3018 RMK A01 T01570101  RH  070%=      5-min Rain = 0
KVA1 100349Z 16005KT 16/10 A3018 RMK A01 T01570101  RH  069%=      5-min Rain = 0
KVA1 100350Z 16005KT 16/10 A3018 RMK A01 T01560101  RH  069%=      5-min Rain = 0
KVA1 100351Z 17005KT 16/10 A3018 RMK A01 T01570101  RH  070%=      5-min Rain = 0
KVA1 100352Z 17005KT 16/10 A3018 RMK A01 T01570102  RH  070%=      5-min Rain = 0
KVA1 100353Z 17005KT 16/10 A3018 RMK A01 T01570103  RH  070%=      5-min Rain = 0
KVA1 100354Z 17005KT 16/10 A3018 RMK A01 T01570102  RH  070%=      5-min Rain = 0
KVA1 100355Z 17004KT 16/10 A3018 RMK A01 T01570102  RH  070%=      5-min Rain = 0
KVA1 100356Z 17004KT 16/10 A3018 RMK A01 T01580103  RH  070%=      5-min Rain = 0
KVA1 100357Z 17004KT 16/10 A3018 RMK A01 T01570103  RH  070%=      5-min Rain = 0
KVA1 100358Z 18004KT 16/10 A3018 RMK A01 T01570103  RH  070%=      5-min Rain = 0
KVA1 100359Z 17004KT 16/10 A3018 RMK A01 T01570103  RH  070%=      5-min Rain = 0
KVA1 100400Z 18004KT 16/10 A3018 RMK A01 T01570104  RH  071%=      5-min Rain = 0
KVA1 100401Z 18004KT 16/10 A3018 RMK A01 T01560104  RH  071%=      5-min Rain = 0
KVA1 100402Z 18004KT 16/10 A3018 RMK A01 T01560104  RH  071%=      5-min Rain = 0
KVA1 100403Z 18003KT 16/10 A3018 RMK A01 T01560104  RH  071%=      5-min Rain = 0
KVA1 100404Z 18003KT 16/10 A3018 RMK A01 T01560104  RH  071%=      5-min Rain = 0
KVA1 100405Z 18004KT 16/10 A3018 RMK A01 T01550104  RH  072%=      5-min Rain = 0
KVA1 100406Z 18004KT 15/10 A3018 RMK A01 T01540104  RH  072%=      5-min Rain = 0
KVA1 100407Z 18003KT 15/10 A3018 RMK A01 T01540104  RH  072%=      5-min Rain = 0
KVA1 100408Z 17003KT 15/10 A3018 RMK A01 T01530104  RH  072%=      5-min Rain = 0
KVA1 100409Z 18003KT 15/10 A3018 RMK A01 T01540104  RH  072%=      5-min Rain = 0
KVA1 100410Z 18003KT 15/11 A3018 RMK A01 T01530105  RH  073%=      5-min Rain = 0
KVA1 100411Z 18003KT 15/10 A3018 RMK A01 T01530104  RH  073%=      5-min Rain = 0
KVA1 100412Z 18003KT 15/10 A3018 RMK A01 T01520104  RH  073%=      5-min Rain = 0
KVA1 100413Z 18003KT 15/10 A3018 RMK A01 T01520104  RH  073%=      5-min Rain = 0
KVA1 100414Z 17003KT 15/10 A3018 RMK A01 T01520104  RH  073%=      5-min Rain = 0
KVA1 100415Z 18003KT 15/10 A3018 RMK A01 T01510104  RH  073%=      5-min Rain = 0
KVA1 100416Z 18003KT 15/10 A3018 RMK A01 T01510104  RH  073%=      5-min Rain = 0
KVA1 100417Z 18003KT 15/10 A3018 RMK A01 T01510103  RH  073%=      5-min Rain = 0
KVA1 100418Z 19003KT 15/10 A3018 RMK A01 T01500103  RH  073%=      5-min Rain = 0
KVA1 100419Z 19003KT 15/10 A3018 RMK A01 T01500103  RH  074%=      5-min Rain = 0
KVA1 100420Z 19003KT 15/10 A3018 RMK A01 T01490103  RH  074%=      5-min Rain = 0
KVA1 100421Z 19003KT 15/10 A3018 RMK A01 T01490104  RH  074%=      5-min Rain = 0
KVA1 100422Z 19003KT 15/10 A3018 RMK A01 T01500104  RH  074%=      5-min Rain = 0
KVA1 100423Z 19003KT 15/11 A3018 RMK A01 T01500105  RH  074%=      5-min Rain = 0
KVA1 100424Z 19003KT 15/10 A3018 RMK A01 T01500104  RH  074%=      5-min Rain = 0
KVA1 100425Z 20003KT 15/11 A3018 RMK A01 T01500105  RH  074%=      5-min Rain = 0
KVA1 100426Z 20003KT 15/11 A3018 RMK A01 T01510105  RH  074%=      5-min Rain = 0
KVA1 100427Z 20003KT 15/11 A3018 RMK A01 T01510106  RH  074%=      5-min Rain = 0
KVA1 100428Z 21003KT 15/11 A3018 RMK A01 T01510105  RH  074%=      5-min Rain = 0
KVA1 100429Z 21003KT 15/10 A3018 RMK A01 T01510104  RH  074%=      5-min Rain = 0
KVA1 100430Z 22003KT 15/10 A3018 RMK A01 T01500104  RH  074%=      5-min Rain = 0
KVA1 100431Z 21003KT 15/10 A3018 RMK A01 T01490103  RH  074%=      5-min Rain = 0
KVA1 100432Z 22003KT 15/10 A3018 RMK A01 T01480103  RH  074%=      5-min Rain = 0
KVA1 100433Z 22003KT 15/10 A3018 RMK A01 T01480103  RH  074%=      5-min Rain = 0
KVA1 100434Z 22003KT 15/10 A3018 RMK A01 T01470102  RH  075%=      5-min Rain = 0
KVA1 100435Z 22003KT 15/10 A3018 RMK A01 T01470102  RH  075%=      5-min Rain = 0
KVA1 100436Z 23003KT 15/10 A3018 RMK A01 T01460103  RH  075%=      5-min Rain = 0
KVA1 100437Z 23003KT 15/10 A3018 RMK A01 T01460102  RH  075%=      5-min Rain = 0
KVA1 100438Z 23003KT 15/10 A3018 RMK A01 T01450102  RH  075%=      5-min Rain = 0
KVA1 100439Z 23003KT 14/10 A3018 RMK A01 T01440102  RH  076%=      5-min Rain = 0
KVA1 100440Z 24003KT 14/10 A3018 RMK A01 T01440101  RH  076%=      5-min Rain = 0
KVA1 100441Z 24003KT 14/10 A3018 RMK A01 T01430101  RH  076%=      5-min Rain = 0
KVA1 100442Z 25003KT 14/10 A3018 RMK A01 T01430101  RH  076%=      5-min Rain = 0
KVA1 100443Z 24003KT 14/10 A3018 RMK A01 T01420101  RH  076%=      5-min Rain = 0
KVA1 100444Z 25003KT 14/10 A3018 RMK A01 T01420101  RH  076%=      5-min Rain = 0
KVA1 100445Z 25003KT 14/10 A3018 RMK A01 T01410101  RH  077%=      5-min Rain = 0
KVA1 100446Z 25003KT 14/10 A3018 RMK A01 T01410100  RH  077%=      5-min Rain = 0
KVA1 100447Z 25004KT 14/10 A3018 RMK A01 T01400099  RH  076%=      5-min Rain = 0
KVA1 100448Z 25004KT 14/10 A3018 RMK A01 T01380098  RH  077%=      5-min Rain = 0
KVA1 100449Z 27003KT 14/10 A3018 RMK A01 T01380099  RH  077%=      5-min Rain = 0
KVA1 100450Z 26003KT 14/10 A3018 RMK A01 T01370098  RH  077%=      5-min Rain = 0
KVA1 100451Z 25004KT 14/10 A3018 RMK A01 T01360098  RH  078%=      5-min Rain = 0
KVA1 100452Z 27004KT 14/10 A3018 RMK A01 T01360099  RH  079%=      5-min Rain = 0
KVA1 100453Z 25004KT 14/10 A3018 RMK A01 T01360099  RH  078%=      5-min Rain = 0
KVA1 100454Z 25004KT 14/10 A3018 RMK A01 T01360099  RH  078%=      5-min Rain = 0
KVA1 100455Z 26004KT 14/10 A3018 RMK A01 T01350099  RH  078%=      5-min Rain = 0
KVA1 100456Z 26004KT 14/10 A3018 RMK A01 T01350099  RH  078%=      5-min Rain = 0
KVA1 100457Z 26004KT 14/10 A3018 RMK A01 T01350099  RH  079%=      5-min Rain = 0
KVA1 100458Z 26004KT 14/10 A3018 RMK A01 T01350098  RH  079%=      5-min Rain = 0
KVA1 100459Z 26005KT 13/10 A3018 RMK A01 T01340098  RH  079%=      5-min Rain = 0
KVA1 100500Z 26004KT 13/10 A3018 RMK A01 T01340098  RH  079%=      5-min Rain = 0
KVA1 100501Z 26004KT 13/10 A3018 RMK A01 T01340098  RH  079%=      5-min Rain = 0
KVA1 100502Z 25004KT 13/10 A3018 RMK A01 T01330097  RH  079%=      5-min Rain = 0
KVA1 100503Z 25004KT 13/10 A3018 RMK A01 T01330097  RH  079%=      5-min Rain = 0
KVA1 100504Z 25004KT 13/10 A3018 RMK A01 T01320097  RH  079%=      5-min Rain = 0
KVA1 100505Z 24004KT 13/10 A3018 RMK A01 T01320098  RH  080%=      5-min Rain = 0
KVA1 100506Z 24004KT 13/10 A3018 RMK A01 T01320098  RH  080%=      5-min Rain = 0
KVA1 100507Z 24004KT 13/10 A3018 RMK A01 T01320099  RH  080%=      5-min Rain = 0
KVA1 100508Z 24004KT 13/10 A3018 RMK A01 T01330101  RH  081%=      5-min Rain = 0
KVA1 100509Z 24004KT 13/10 A3018 RMK A01 T01340102  RH  081%=      5-min Rain = 0
KVA1 100510Z 24004KT 14/10 A3018 RMK A01 T01350103  RH  081%=      5-min Rain = 0
KVA1 100511Z 24004KT 14/10 A3018 RMK A01 T01350102  RH  080%=      5-min Rain = 0
KVA1 100512Z 25004KT 14/10 A3018 RMK A01 T01360102  RH  080%=      5-min Rain = 0
KVA1 100513Z 25004KT 14/10 A3018 RMK A01 T01360101  RH  080%=      5-min Rain = 0
KVA1 100514Z 25004KT 14/10 A3018 RMK A01 T01360102  RH  080%=      5-min Rain = 0
KVA1 100515Z 26003KT 14/10 A3018 RMK A01 T01370103  RH  080%=      5-min Rain = 0
KVA1 100516Z 26003KT 14/10 A3018 RMK A01 T01380104  RH  080%=      5-min Rain = 0
KVA1 100517Z 26003KT 14/10 A3018 RMK A01 T01380103  RH  079%=      5-min Rain = 0
KVA1 100518Z 26003KT 14/10 A3018 RMK A01 T01380103  RH  079%=      5-min Rain = 0
KVA1 100519Z 26003KT 14/10 A3018 RMK A01 T01380103  RH  079%=      5-min Rain = 0
KVA1 100520Z 26003KT 14/10 A3018 RMK A01 T01380102  RH  079%=      5-min Rain = 0
KVA1 100521Z 26003KT 14/10 A3018 RMK A01 T01380102  RH  079%=      5-min Rain = 0
KVA1 100522Z 25004KT 14/10 A3018 RMK A01 T01370101  RH  078%=      5-min Rain = 0
KVA1 100523Z 25005KT 14/10 A3018 RMK A01 T01370100  RH  078%=      5-min Rain = 0
KVA1 100524Z 24005KT 14/10 A3018 RMK A01 T01360100  RH  079%=      5-min Rain = 0
KVA1 100525Z 24005KT 14/10 A3018 RMK A01 T01350100  RH  079%=      5-min Rain = 0
KVA1 100526Z 24005KT 13/10 A3018 RMK A01 T01340100  RH  079%=      5-min Rain = 0
KVA1 100527Z 24004KT 13/10 A3018 RMK A01 T01340100  RH  080%=      5-min Rain = 0
KVA1 100528Z 23004KT 13/10 A3018 RMK A01 T01340100  RH  080%=      5-min Rain = 0
KVA1 100529Z 24004KT 13/10 A3018 RMK A01 T01330100  RH  080%=      5-min Rain = 0
KVA1 100530Z 24004KT 13/10 A3018 RMK A01 T01340101  RH  080%=      5-min Rain = 0
KVA1 100531Z 24004KT 13/10 A3017 RMK A01 T01340100  RH  080%=      5-min Rain = 0
KVA1 100532Z 24004KT 13/10 A3017 RMK A01 T01340101  RH  081%=      5-min Rain = 0
KVA1 100533Z 24004KT 13/10 A3017 RMK A01 T01340102  RH  081%=      5-min Rain = 0
KVA1 100534Z 23005KT 13/10 A3017 RMK A01 T01340102  RH  081%=      5-min Rain = 0
KVA1 100535Z 23004KT 13/10 A3017 RMK A01 T01340102  RH  081%=      5-min Rain = 0
KVA1 100536Z 23004KT 13/10 A3017 RMK A01 T01340102  RH  081%=      5-min Rain = 0
KVA1 100537Z 22004KT 13/10 A3017 RMK A01 T01340103  RH  081%=      5-min Rain = 0
KVA1 100538Z 22004KT 13/10 A3017 RMK A01 T01340102  RH  081%=      5-min Rain = 0
KVA1 100539Z 22004KT 13/10 A3018 RMK A01 T01340101  RH  080%=      5-min Rain = 0
KVA1 100540Z 22004KT 13/10 A3017 RMK A01 T01340101  RH  080%=      5-min Rain = 0
KVA1 100541Z 22004KT 13/10 A3017 RMK A01 T01340101  RH  081%=      5-min Rain = 0
KVA1 100542Z 22004KT 13/10 A3017 RMK A01 T01340101  RH  081%=      5-min Rain = 0
KVA1 100543Z 22004KT 13/10 A3017 RMK A01 T01340101  RH  081%=      5-min Rain = 0
KVA1 100544Z 22004KT 13/10 A3017 RMK A01 T01330101  RH  081%=      5-min Rain = 0
KVA1 100545Z 22004KT 13/10 A3017 RMK A01 T01330101  RH  081%=      5-min Rain = 0
KVA1 100546Z 22004KT 13/10 A3017 RMK A01 T01330100  RH  081%=      5-min Rain = 0
KVA1 100547Z 22004KT 13/10 A3017 RMK A01 T01320100  RH  081%=      5-min Rain = 0
KVA1 100548Z 22004KT 13/10 A3017 RMK A01 T01320099  RH  081%=      5-min Rain = 0
KVA1 100549Z 22004KT 13/10 A3017 RMK A01 T01310099  RH  081%=      5-min Rain = 0
KVA1 100550Z 22003KT 13/10 A3017 RMK A01 T01310099  RH  081%=      5-min Rain = 0
KVA1 100551Z 22004KT 13/10 A3017 RMK A01 T01300099  RH  081%=      5-min Rain = 0
KVA1 100552Z 22004KT 13/10 A3017 RMK A01 T01300099  RH  082%=      5-min Rain = 0
KVA1 100553Z 22004KT 13/10 A3017 RMK A01 T01290098  RH  082%=      5-min Rain = 0
KVA1 100554Z 22004KT 13/10 A3017 RMK A01 T01280098  RH  082%=      5-min Rain = 0
KVA1 100555Z 21004KT 13/10 A3017 RMK A01 T01270097  RH  082%=      5-min Rain = 0
KVA1 100556Z 21004KT 13/10 A3017 RMK A01 T01270097  RH  082%=      5-min Rain = 0
KVA1 100557Z 21004KT 13/10 A3017 RMK A01 T01260096  RH  082%=      5-min Rain = 0
KVA1 100558Z 22004KT 13/10 A3017 RMK A01 T01260096  RH  082%=      5-min Rain = 0
KVA1 100559Z 22004KT 13/10 A3017 RMK A01 T01250095  RH  082%=      5-min Rain = 0

Page generated in 0.0776 seconds.